Darstellungsparameter: Aktuell verwendete Einstellungen:
Skalierung der Graphiken ... ?
xyx+y,   Skalierungsfaktor:      Skalierung: Modus: x, Faktor: 1
Darstellungszeitraum ... ?
Vom - - bis: - -   Zeitraum: 02.10.2017 - 01.10.2020
Min/Max/Avg-Anzeige ... ?
Zeige MMA aktuell
Zeige MMA Monat
Zeige MMA alles
Zeige --A aktuell
Zeige --A Monat
Zeige --A alles
Keine MMA-Anzeige
MMA:
Keine MMA-Graphiken
MMA-Basis: 02.10.2017 - 01.10.2020
Quicknavigation für Darstellung... ?
Tage:      1T, 2T, 3T, 5T -1T -2T -3T -5T +1T +2T +3T +5T
Wochen: 1W, 2W, 3W -1W -2W -3W +1W +2W +3W
Monate: 1M, 3M, 6M -1M -3M -6M +1M +3M +6M
Jahre:    1J, 3J, 5J, 10J -1J -3J -5J -10J +1J +3J +5J +10J
Nutze für die Darstellung ... ?
Originaldaten oder ...
Mittelwerte Minima Maxima auf...
Stundenbasis Tagesbasis Wochenbasis
Monatsbasis Jahresbasis      Datenbasis: Mittelwerte auf Tagesbasis
Darstellen als:
Statistik (Auto) Statistik J:M      Darstellung:
Zur Graphik,    zurück zur Übersicht aller Sensoren.
 
Tabellarische Datenbersicht: ?
 
Sensor: Nr:Datum:Temp:Feuchte:
Aussen-T/F 1 02-10-2017 00:00:00 13.38833 C 43.6167 %
2 03-10-2017 00:00:00 12.20667 C 42.3667 %
3 04-10-2017 00:00:00 11.05583 C 31.0333 %
4 05-10-2017 00:00:00 12.92833 C 21.9667 %
5 06-10-2017 00:00:00 9.4 C 33.6250 %
6 07-10-2017 00:00:00 9.55083 C 31.6583 %
7 08-10-2017 00:00:00 11.81833 C 41.5417 %
8 09-10-2017 00:00:00 10.9925 C 47.1583 %
9 10-10-2017 00:00:00 12.88917 C 31.8167 %
10 11-10-2017 00:00:00 13.19167 C 31.2083 %
11 12-10-2017 00:00:00 13.13667 C 36.6500 %
12 13-10-2017 00:00:00 13.9275 C 38.7583 %
13 14-10-2017 00:00:00 12.47167 C 50.0167 %
14 15-10-2017 00:00:00 11.94833 C 54.6750 %
15 16-10-2017 00:00:00 12.63333 C 51.4833 %
16 17-10-2017 00:00:00 12.20667 C 52.4250 %
17 18-10-2017 00:00:00 11.85333 C 50.4167 %
18 19-10-2017 00:00:00 11.0025 C 50.7750 %
19 20-10-2017 00:00:00 11.63697 C 37.7479 %
20 21-10-2017 00:00:00 11.28083 C 38.1917 %
21 22-10-2017 00:00:00 10.28417 C 24.4167 %
22 23-10-2017 00:00:00 10.42417 C 23.7667 %
23 24-10-2017 00:00:00 12.76333 C 33.7917 %
24 25-10-2017 00:00:00 15.1425 C 27.6500 %
25 26-10-2017 00:00:00 13.17917 C 29.2667 %
Sensor: Nr:Datum:Temp:Feuchte:
Aussen-T/F 26 27-10-2017 00:00:00 10.80833 C 33.6167 %
27 28-10-2017 00:00:00 10.09833 C 24.5250 %
28 29-10-2017 00:00:00 10.1184 C 26.6160 %
29 30-10-2017 00:00:00 6.43917 C 30.2667 %
30 31-10-2017 00:00:00 7.06917 C 27.1250 %
31 01-11-2017 00:00:00 7.99917 C 24.8000 %
32 02-11-2017 00:00:00 7.76917 C 32.9583 %
33 03-11-2017 00:00:00 6.735 C 45.5833 %
34 04-11-2017 00:00:00 7.89167 C 53.2917 %
35 05-11-2017 00:00:00 8.26167 C 46.6500 %
36 06-11-2017 00:00:00 5.14 C 33.5917 %
37 07-11-2017 00:00:00 4.24333 C 45.0833 %
38 08-11-2017 00:00:00 6.0575 C 55.0333 %
39 09-11-2017 00:00:00 7.38917 C 46.1583 %
40 10-11-2017 00:00:00 6.65917 C 26.9667 %
41 11-11-2017 00:00:00 5.63583 C 40.7000 %
42 12-11-2017 00:00:00 3.91583 C 58.4500 %
43 13-11-2017 00:00:00 4.73833 C 41.6917 %
44 14-11-2017 00:00:00 3.73417 C 47.8500 %
45 15-11-2017 00:00:00 6.5375 C 27.1083 %
46 16-11-2017 00:00:00 4.27833 C 39.8500 %
47 17-11-2017 00:00:00 5.2975 C 48.8250 %
48 18-11-2017 00:00:00 2.87083 C 39.8833 %
49 19-11-2017 00:00:00 4.78583 C 32.4167 %
50 20-11-2017 00:00:00 4.46917 C 31.8667 %
Sensor: Nr:Datum:Temp:Feuchte:
Aussen-T/F 51 21-11-2017 00:00:00 8.65667 C 28.5833 %
52 22-11-2017 00:00:00 7.285 C 30.5250 %
53 23-11-2017 00:00:00 8.5175 C 46.0583 %
54 24-11-2017 00:00:00 9.68 C 41.3083 %
55 25-11-2017 00:00:00 4.5475 C 53.6583 %
56 26-11-2017 00:00:00 2.92583 C 28.8917 %
57 27-11-2017 00:00:00 4.8625 C 21.2917 %
58 28-11-2017 00:00:00 3.22667 C 51.1000 %
59 29-11-2017 00:00:00 2.265 C 55.6667 %
60 30-11-2017 00:00:00 1.60417 C 52.1417 %
61 01-12-2017 00:00:00 -0.2175 C 65.1167 %
62 02-12-2017 00:00:00 0.44833 C 41.3833 %
63 03-12-2017 00:00:00 -0.00667 C 31.2250 %
64 04-12-2017 00:00:00 2.29 C 46.3167 %
65 05-12-2017 00:00:00 3.6025 C 38.3333 %
66 06-12-2017 00:00:00 5.19833 C 24.6583 %
67 07-12-2017 00:00:00 4.21333 C 22.9083 %
68 08-12-2017 00:00:00 2.61083 C 31.9250 %
69 09-12-2017 00:00:00 0.24417 C 20.0083 %
70 10-12-2017 00:00:00 1.39167 C 28.5667 %
71 11-12-2017 00:00:00 4.91083 C 48.9333 %
72 12-12-2017 00:00:00 2.8125 C 21.0417 %
73 13-12-2017 00:00:00 2.70083 C 32.0833 %
74 14-12-2017 00:00:00 3.58417 C 33.7083 %
75 15-12-2017 00:00:00 2.05167 C 59.1500 %
Sensor: Nr:Datum:Temp:Feuchte:
Aussen-T/F 76 16-12-2017 00:00:00 2.14667 C 54.8167 %
77 17-12-2017 00:00:00 2.22583 C 28.7000 %
78 18-12-2017 00:00:00 0.71333 C 56.1333 %
79 19-12-2017 00:00:00 2.67 C 67.9667 %
80 20-12-2017 00:00:00 4.95083 C 67.4833 %
81 21-12-2017 00:00:00 6.82667 C 61.0083 %
82 22-12-2017 00:00:00 8.10417 C 67.4917 %
83 23-12-2017 00:00:00 8.1975 C 39.8417 %
84 24-12-2017 00:00:00 8.37583 C 20.1083 %
85 25-12-2017 00:00:00 6.34167 C 20.0583 %
86 26-12-2017 00:00:00 3.55917 C 38.0083 %
87 27-12-2017 00:00:00 4.2 C 40.9333 %
88 28-12-2017 00:00:00 2.28083 C 30.6667 %
89 29-12-2017 00:00:00 1.6 C 29.8333 %
90 30-12-2017 00:00:00 6.22583 C 44.3250 %
91 31-12-2017 00:00:00 12.09667 C 23.3583 %
92 01-01-2018 00:00:00 7.035 C 28.9500 %
93 02-01-2018 00:00:00 5.395 C 28.4083 %
94 03-01-2018 00:00:00 7.40667 C 26.8250 %
95 04-01-2018 00:00:00 7.375 C 35.2167 %
96 05-01-2018 00:00:00 7.45583 C 34.5250 %
97 06-01-2018 00:00:00 5.4075 C 71.1333 %
98 07-01-2018 00:00:00 4.365 C 39.4167 %
99 08-01-2018 00:00:00 3.86417 C 21.1167 %
100 09-01-2018 00:00:00 4.01083 C 35.8167 %
Sensor: Nr:Datum:Temp:Feuchte:
Aussen-T/F 101 10-01-2018 00:00:00 5.88833 C 39.9000 %
102 11-01-2018 00:00:00 6.29167 C 52.8750 %
103 12-01-2018 00:00:00 5.70083 C 50.0167 %
104 13-01-2018 00:00:00 4.70917 C 38.6750 %
105 14-01-2018 00:00:00 2.06917 C 25.5583 %
106 15-01-2018 00:00:00 2.675 C 35.7000 %
107 16-01-2018 00:00:00 5.00167 C 27.7500 %
108 17-01-2018 00:00:00 2.35 C 27.4500 %
109 18-01-2018 00:00:00 4.8775 C 25.4667 %
110 19-01-2018 00:00:00 2.92583 C 27.3750 %
111 20-01-2018 00:00:00 2.10833 C 38.1000 %
112 21-01-2018 00:00:00 1.73917 C 43.8167 %
113 22-01-2018 00:00:00 4.38583 C 45.1083 %
114 23-01-2018 00:00:00 6.65593 C 27.4831 %
115 24-01-2018 00:00:00 10.79316 C 24.5470 %
116 25-01-2018 00:00:00 9.13917 C 43.9750 %
117 26-01-2018 00:00:00 5.89167 C 56.7333 %
118 27-01-2018 00:00:00 4.26583 C 45.6667 %
119 28-01-2018 00:00:00 6.63917 C 22.5333 %
120 29-01-2018 00:00:00 9.275 C 22.7417 %
121 30-01-2018 00:00:00 4.25333 C 35.1167 %
122 31-01-2018 00:00:00 6.62917 C 32.6500 %
123 01-02-2018 00:00:00 2.0675 C 36.1083 %
124 02-02-2018 00:00:00 2.36417 C 31.6667 %
125 03-02-2018 00:00:00 2.65042 C 30.2269 %
Sensor: Nr:Datum:Temp:Feuchte:
Aussen-T/F 126 04-02-2018 00:00:00 0.38667 C 29.6333 %
127 05-02-2018 00:00:00 -0.98583 C 20.2500 %
128 06-02-2018 00:00:00 -1.55167 C 25.9583 %
129 07-02-2018 00:00:00 -0.79667 C 32.3833 %
130 08-02-2018 00:00:00 -3.34333 C 28.9667 %
131 09-02-2018 00:00:00 -2.8975 C 36.1833 %
132 10-02-2018 00:00:00 1.41833 C 24.0167 %
133 11-02-2018 00:00:00 2.22 C 26.3667 %
134 12-02-2018 00:00:00 1.25083 C 34.8917 %
135 13-02-2018 00:00:00 -1.44 C 29.8417 %
136 14-02-2018 00:00:00 -3.14333 C 28.8667 %
137 15-02-2018 00:00:00 0.80417 C 40.6583 %
138 16-02-2018 00:00:00 0.98667 C 60.1667 %
139 17-02-2018 00:00:00 -0.55 C 48.8833 %
140 18-02-2018 00:00:00 -2.16917 C 38.4250 %
141 19-02-2018 00:00:00 0.37083 C 35.6500 %
142 20-02-2018 00:00:00 -0.54083 C 33.3417 %
143 21-02-2018 00:00:00 -0.04917 C 22.5333 %
144 22-02-2018 00:00:00 -1.265 C 21.2167 %
145 23-02-2018 00:00:00 -2.0175 C 20.0000 %
146 24-02-2018 00:00:00 -2.72667 C 20.0000 %
147 25-02-2018 00:00:00 -3.74417 C 20.0000 %
148 26-02-2018 00:00:00 -5.06167 C 20.0000 %
149 27-02-2018 00:00:00 -7.2225 C 20.3500 %
150 28-02-2018 00:00:00 -7.98333 C 20.0000 %
Sensor: Nr:Datum:Temp:Feuchte:
Aussen-T/F 151 01-03-2018 00:00:00 -3.74917 C 20.0000 %
152 02-03-2018 00:00:00 -2.59083 C 20.0917 %
153 03-03-2018 00:00:00 -0.72083 C 28.3583 %
154 04-03-2018 00:00:00 3.2 C 37.8833 %
155 05-03-2018 00:00:00 5.22833 C 42.3583 %
156 06-03-2018 00:00:00 4.25 C 40.7750 %
157 07-03-2018 00:00:00 4.89167 C 43.0333 %
158 08-03-2018 00:00:00 5.66417 C 23.5833 %
159 09-03-2018 00:00:00 4.83667 C 41.9500 %
160 10-03-2018 00:00:00 9.51333 C 45.7833 %
161 11-03-2018 00:00:00 9.60833 C 40.1667 %
162 12-03-2018 00:00:00 9.04083 C 37.0250 %
163 13-03-2018 00:00:00 6.84083 C 24.1083 %
164 14-03-2018 00:00:00 6.32917 C 26.1667 %
165 15-03-2018 00:00:00 5.73833 C 33.0750 %
166 16-03-2018 00:00:00 7.00917 C 47.9667 %
167 17-03-2018 00:00:00 -0.93917 C 20.2583 %
168 18-03-2018 00:00:00 -2.1675 C 20.0000 %
169 19-03-2018 00:00:00 -0.63417 C 20.0000 %
170 20-03-2018 00:00:00 -0.4175 C 20.0167 %
171 21-03-2018 00:00:00 0.5225 C 24.8500 %
172 22-03-2018 00:00:00 2.45417 C 30.2000 %
173 23-03-2018 00:00:00 5.83583 C 38.3250 %
174 24-03-2018 00:00:00 4.74917 C 35.3167 %
175 25-03-2018 00:00:00 4.60522 C 30.4870 %
Sensor: Nr:Datum:Temp:Feuchte:
Aussen-T/F 176 26-03-2018 00:00:00 7.34167 C 20.0250 %
177 27-03-2018 00:00:00 5.52083 C 29.7083 %
178 28-03-2018 00:00:00 8.02667 C 36.4167 %
179 29-03-2018 00:00:00 6.93667 C 20.9833 %
180 30-03-2018 00:00:00 6.38833 C 34.0000 %
181 31-03-2018 00:00:00 7.84583 C 39.4917 %
182 01-04-2018 00:00:00 7.26083 C 20.4250 %
183 02-04-2018 00:00:00 8.7875 C 27.6500 %
184 03-04-2018 00:00:00 13.26583 C 20.0000 %
185 04-04-2018 00:00:00 10.6625 C 24.3500 %
186 05-04-2018 00:00:00 7.485 C 30.3417 %
187 06-04-2018 00:00:00 6.66833 C 35.5583 %
188 07-04-2018 00:00:00 12.16083 C 22.7583 %
189 08-04-2018 00:00:00 14.75333 C 22.3333 %
190 09-04-2018 00:00:00 13.84583 C 24.6917 %
191 10-04-2018 00:00:00 12.68 C 28.0833 %
192 11-04-2018 00:00:00 11.99333 C 34.9833 %
193 12-04-2018 00:00:00 13.34833 C 37.0500 %
194 13-04-2018 00:00:00 9.9075 C 32.0833 %
195 14-04-2018 00:00:00 12.74 C 36.2167 %
196 15-04-2018 00:00:00 14.41667 C 27.2750 %
197 16-04-2018 00:00:00 13.76083 C 31.1917 %
198 17-04-2018 00:00:00 14.02167 C 29.2083 %
199 18-04-2018 00:00:00 15.74583 C 26.0333 %
200 19-04-2018 00:00:00 17.22083 C 26.6000 %
Sensor: Nr:Datum:Temp:Feuchte:
Aussen-T/F 201 20-04-2018 00:00:00 17.00083 C 24.1667 %
202 21-04-2018 00:00:00 18.43667 C 23.5750 %
203 22-04-2018 00:00:00 18.55417 C 25.1083 %
204 23-04-2018 00:00:00 18.66417 C 20.2833 %
205 24-04-2018 00:00:00 14.27333 C 24.2167 %
206 25-04-2018 00:00:00 13.4125 C 21.6750 %
207 26-04-2018 00:00:00 11.21 C 20.0000 %
208 27-04-2018 00:00:00 12.55083 C 22.6167 %
209 28-04-2018 00:00:00 12.6075 C 23.1000 %
210 29-04-2018 00:00:00 14.48167 C 29.9583 %
211 30-04-2018 00:00:00 13.82167 C 24.6083 %
212 01-05-2018 00:00:00 9.82667 C 20.0500 %
213 02-05-2018 00:00:00 9.81083 C 27.0250 %
214 03-05-2018 00:00:00 12.9575 C 23.3250 %
215 04-05-2018 00:00:00 13.49833 C 21.9583 %
216 05-05-2018 00:00:00 15.83583 C 20.0667 %
217 06-05-2018 00:00:00 17.25 C 20.1167 %
218 07-05-2018 00:00:00 17.88167 C 21.1000 %
219 08-05-2018 00:00:00 18.43583 C 22.6667 %
220 09-05-2018 00:00:00 17.19333 C 22.2583 %
221 10-05-2018 00:00:00 14.13917 C 25.9500 %
222 11-05-2018 00:00:00 14.92083 C 27.9167 %
223 12-05-2018 00:00:00 17.0825 C 28.2750 %
224 13-05-2018 00:00:00 14.3425 C 37.0500 %
225 14-05-2018 00:00:00 17.16333 C 35.6750 %
Sensor: Nr:Datum:Temp:Feuchte:
Aussen-T/F 226 15-05-2018 00:00:00 16.0375 C 27.9417 %
227 16-05-2018 00:00:00 15.7475 C 27.4000 %
228 17-05-2018 00:00:00 14.55667 C 23.4833 %
229 18-05-2018 00:00:00 13.17083 C 21.1083 %
230 19-05-2018 00:00:00 13.845 C 23.5250 %
231 20-05-2018 00:00:00 14.06917 C 31.8333 %
232 21-05-2018 00:00:00 17.55333 C 27.4333 %
233 22-05-2018 00:00:00 17.09833 C 29.9833 %
234 23-05-2018 00:00:00 17.23083 C 36.1833 %
235 24-05-2018 00:00:00 17.22083 C 27.4917 %
236 25-05-2018 00:00:00 20.19417 C 26.8083 %
237 26-05-2018 00:00:00 21.1325 C 26.3667 %
238 27-05-2018 00:00:00 20.4375 C 27.6917 %
239 28-05-2018 00:00:00 21.70917 C 33.5833 %
240 29-05-2018 00:00:00 20.88333 C 27.1500 %
241 30-05-2018 00:00:00 21.6725 C 28.2333 %
242 31-05-2018 00:00:00 23.08167 C 20.2750 %
243 01-06-2018 00:00:00 19.3725 C 29.3667 %
244 02-06-2018 00:00:00 19.64917 C 23.6750 %
245 03-06-2018 00:00:00 20.04167 C 24.8250 %
246 04-06-2018 00:00:00 21.5125 C 24.5417 %
247 05-06-2018 00:00:00 21.2475 C 22.2500 %
248 06-06-2018 00:00:00 21.6775 C 24.0000 %
249 07-06-2018 00:00:00 21.58667 C 22.6167 %
250 08-06-2018 00:00:00 21.40167 C 24.3000 %
Sensor: Nr:Datum:Temp:Feuchte:
Aussen-T/F 251 09-06-2018 00:00:00 22.3959 C 23.5984 %
252 10-06-2018 00:00:00 21.64333 C 33.3000 %
253 11-06-2018 00:00:00 19.07083 C 41.7083 %
254 12-06-2018 00:00:00 16.44167 C 37.5250 %
255 13-06-2018 00:00:00 15.1 C 22.7000 %
256 14-06-2018 00:00:00 15.48083 C 30.2917 %
257 15-06-2018 00:00:00 17.9025 C 35.7250 %
258 16-06-2018 00:00:00 20.2775 C 26.1583 %
259 17-06-2018 00:00:00 18.42583 C 22.8083 %
260 18-06-2018 00:00:00 18.235 C 21.9750 %
261 19-06-2018 00:00:00 19.13333 C 25.5583 %
262 20-06-2018 00:00:00 23.4825 C 24.4667 %
263 21-06-2018 00:00:00 18.58 C 22.6500 %
264 22-06-2018 00:00:00 14.12167 C 20.0000 %
265 23-06-2018 00:00:00 14.19167 C 21.2750 %
266 24-06-2018 00:00:00 16.46667 C 22.7833 %
267 25-06-2018 00:00:00 17.57167 C 21.5583 %
268 26-06-2018 00:00:00 18.34083 C 24.8583 %
269 27-06-2018 00:00:00 19.81083 C 24.3333 %
270 28-06-2018 00:00:00 21.28417 C 20.6000 %
271 29-06-2018 00:00:00 24.82417 C 20.0000 %
272 30-06-2018 00:00:00 22.8375 C 20.4583 %
273 01-07-2018 00:00:00 21.52333 C 20.0000 %
274 02-07-2018 00:00:00 21.06583 C 20.0000 %
275 03-07-2018 00:00:00 21.34917 C 20.0000 %
Sensor: Nr:Datum:Temp:Feuchte:
Aussen-T/F 276 04-07-2018 00:00:00 19.00917 C 27.2667 %
277 05-07-2018 00:00:00 19.70667 C 33.6083 %
278 06-07-2018 00:00:00 20.57333 C 25.0417 %
279 07-07-2018 00:00:00 21.3521 C 23.5630 %
280 08-07-2018 00:00:00 20.38417 C 21.0583 %
281 09-07-2018 00:00:00 20.71083 C 21.4167 %
282 10-07-2018 00:00:00 17.5975 C 22.4000 %
283 11-07-2018 00:00:00 16.2875 C 33.6667 %
284 12-07-2018 00:00:00 19.71583 C 32.5000 %
285 13-07-2018 00:00:00 20.13 C 24.9667 %
286 14-07-2018 00:00:00 22.01333 C 24.7500 %
287 15-07-2018 00:00:00 22.10833 C 22.6333 %
288 16-07-2018 00:00:00 23.10667 C 21.7167 %
289 17-07-2018 00:00:00 21.59583 C 20.3583 %
290 18-07-2018 00:00:00 20.9475 C 22.7500 %
291 19-07-2018 00:00:00 21.47667 C 21.5833 %
292 20-07-2018 00:00:00 21.81583 C 20.1917 %
293 21-07-2018 00:00:00 20.94083 C 22.6750 %
294 22-07-2018 00:00:00 22.115 C 25.1500 %
295 23-07-2018 00:00:00 22.98917 C 21.2167 %
296 24-07-2018 00:00:00 24.11417 C 22.5833 %
297 25-07-2018 00:00:00 25.90417 C 20.1583 %
298 26-07-2018 00:00:00 27.54333 C 20.0167 %
299 27-07-2018 00:00:00 26.46167 C 20.0000 %
300 28-07-2018 00:00:00 22.24 C 22.3250 %
Sensor: Nr:Datum:Temp:Feuchte:
Aussen-T/F 301 29-07-2018 00:00:00 23.87667 C 23.3500 %
302 30-07-2018 00:00:00 24.435 C 20.3250 %
303 31-07-2018 00:00:00 25.8025 C 21.1500 %
304 01-08-2018 00:00:00 20.68583 C 32.5500 %
305 02-08-2018 00:00:00 24.12 C 31.7333 %
306 03-08-2018 00:00:00 26.79583 C 20.9083 %
307 04-08-2018 00:00:00 26.84 C 20.0667 %
308 05-08-2018 00:00:00 25.5025 C 20.1667 %
309 06-08-2018 00:00:00 24.4075 C 20.1500 %
310 07-08-2018 00:00:00 26.99333 C 20.0000 %
311 08-08-2018 00:00:00 25.83667 C 20.0000 %
312 09-08-2018 00:00:00 20.8725 C 26.6583 %
313 10-08-2018 00:00:00 18.73667 C 20.8917 %
314 11-08-2018 00:00:00 18.76667 C 20.0000 %
315 12-08-2018 00:00:00 18.38667 C 21.9833 %
316 13-08-2018 00:00:00 17.82083 C 28.9750 %
317 14-08-2018 00:00:00 18.755 C 28.1167 %
318 15-08-2018 00:00:00 19.59583 C 29.0833 %
319 16-08-2018 00:00:00 20.84333 C 28.0000 %
320 17-08-2018 00:00:00 20.11583 C 22.3500 %
321 18-08-2018 00:00:00 19.2675 C 26.3417 %
322 19-08-2018 00:00:00 20.68667 C 23.5250 %
323 20-08-2018 00:00:00 21.20333 C 20.6833 %
324 21-08-2018 00:00:00 22.2425 C 24.3417 %
325 22-08-2018 00:00:00 23.51417 C 22.7667 %
Sensor: Nr:Datum:Temp:Feuchte:
Aussen-T/F 326 23-08-2018 00:00:00 23.22 C 23.0167 %
327 24-08-2018 00:00:00 19.31833 C 20.6583 %
328 25-08-2018 00:00:00 14.65417 C 21.6083 %
329 26-08-2018 00:00:00 13.95083 C 28.0000 %
330 27-08-2018 00:00:00 18.20917 C 20.3667 %
331 28-08-2018 00:00:00 18.39833 C 20.7167 %
332 29-08-2018 00:00:00 17.005 C 30.8917 %
333 30-08-2018 00:00:00 17.4125 C 25.9167 %
334 31-08-2018 00:00:00 15.33167 C 23.6000 %
335 01-09-2018 00:00:00 14.445 C 26.6667 %
336 02-09-2018 00:00:00 14.24833 C 24.8000 %
337 03-09-2018 00:00:00 18.13417 C 22.9917 %
338 04-09-2018 00:00:00 20.0425 C 27.0167 %
339 05-09-2018 00:00:00 20.69 C 25.3083 %
340 06-09-2018 00:00:00 18.0925 C 32.7583 %
341 07-09-2018 00:00:00 15.6675 C 33.8500 %
342 08-09-2018 00:00:00 13.5425 C 30.5333 %
343 09-09-2018 00:00:00 16.80833 C 23.2500 %
344 10-09-2018 00:00:00 17.5025 C 23.9000 %
345 11-09-2018 00:00:00 18.86667 C 26.0333 %
346 12-09-2018 00:00:00 19.03167 C 24.0083 %
347 13-09-2018 00:00:00 16.5775 C 25.7417 %
348 14-09-2018 00:00:00 17.1375 C 25.2000 %
349 15-09-2018 00:00:00 15.17 C 21.0833 %
350 16-09-2018 00:00:00 14.51 C 27.7833 %
Sensor: Nr:Datum:Temp:Feuchte:
Aussen-T/F 351 17-09-2018 00:00:00 16.24583 C 25.3583 %
352 18-09-2018 00:00:00 18.72833 C 26.0000 %
353 19-09-2018 00:00:00 20.545 C 25.3250 %
354 20-09-2018 00:00:00 19.08833 C 26.8417 %
355 21-09-2018 00:00:00 15.91167 C 24.5750 %
356 22-09-2018 00:00:00 12.6825 C 25.6333 %
357 23-09-2018 00:00:00 12.18083 C 47.2250 %
358 24-09-2018 00:00:00 9.66 C 36.3583 %
359 25-09-2018 00:00:00 8.06417 C 42.7083 %
360 26-09-2018 00:00:00 8.5625 C 35.2583 %
361 27-09-2018 00:00:00 10.55833 C 35.5667 %
362 28-09-2018 00:00:00 9.67833 C 43.7167 %
363 29-09-2018 00:00:00 7.75083 C 41.1250 %
364 30-09-2018 00:00:00 7.2475 C 35.9250 %
365 01-10-2018 00:00:00 9.41583 C 29.7833 %
366 02-10-2018 00:00:00 8.87917 C 33.7167 %
367 03-10-2018 00:00:00 11.93917 C 34.0750 %
368 04-10-2018 00:00:00 9.37167 C 38.3000 %
369 05-10-2018 00:00:00 10.05917 C 42.4917 %
370 06-10-2018 00:00:00 12.08583 C 44.5417 %
371 07-10-2018 00:00:00 12.625 C 37.2750 %
372 08-10-2018 00:00:00 9.9775 C 39.4833 %
373 09-10-2018 00:00:00 11.14583 C 44.1500 %
374 10-10-2018 00:00:00 12.71667 C 45.8500 %
375 11-10-2018 00:00:00 13.6775 C 40.8667 %
Sensor: Nr:Datum:Temp:Feuchte:
Aussen-T/F 376 12-10-2018 00:00:00 15.05417 C 38.8667 %
377 13-10-2018 00:00:00 14.68833 C 38.8250 %
378 14-10-2018 00:00:00 13.92083 C 36.1000 %
379 15-10-2018 00:00:00 12.87417 C 37.7167 %
380 16-10-2018 00:00:00 12.0325 C 38.6083 %
381 17-10-2018 00:00:00 12.01333 C 41.5083 %
382 18-10-2018 00:00:00 13.73917 C 38.0333 %
383 19-10-2018 00:00:00 11.66417 C 37.7167 %
384 20-10-2018 00:00:00 10.57167 C 36.9583 %
385 21-10-2018 00:00:00 6.7725 C 44.7500 %
386 22-10-2018 00:00:00 7.16833 C 43.7083 %
387 23-10-2018 00:00:00 8.68 C 39.8083 %
388 24-10-2018 00:00:00 13.58167 C 33.8333 %
389 25-10-2018 00:00:00 12.74667 C 31.1083 %
390 26-10-2018 00:00:00 9.95417 C 28.9917 %
391 27-10-2018 00:00:00 5.7925 C 48.4000 %
392 28-10-2018 00:00:00 5.2 C 33.7840 %
393 29-10-2018 00:00:00 5.97083 C 33.6667 %
394 30-10-2018 00:00:00 5.80583 C 46.3667 %
395 31-10-2018 00:00:00 6.87167 C 39.3333 %
396 01-11-2018 00:00:00 5.49083 C 58.1333 %
397 02-11-2018 00:00:00 8.22333 C 53.4750 %
398 03-11-2018 00:00:00 3.10583 C 60.6667 %
399 04-11-2018 00:00:00 6.64167 C 47.4000 %
400 05-11-2018 00:00:00 9.7725 C 45.3417 %
Sensor: Nr:Datum:Temp:Feuchte:
Aussen-T/F 401 06-11-2018 00:00:00 7.78167 C 57.6917 %
402 07-11-2018 00:00:00 8.4 C 54.3917 %
403 08-11-2018 00:00:00 9.7 C 41.1583 %
404 09-11-2018 00:00:00 8.83167 C 49.0500 %
405 10-11-2018 00:00:00 11.32 C 42.0250 %
406 11-11-2018 00:00:00 11.46583 C 47.7500 %
407 12-11-2018 00:00:00 13.07917 C 44.0417 %
408 13-11-2018 00:00:00 9.75583 C 50.0167 %
409 14-11-2018 00:00:00 5.56917 C 61.4000 %
410 15-11-2018 00:00:00 6.72833 C 38.5000 %
411 16-11-2018 00:00:00 5.12667 C 41.4000 %
412 17-11-2018 00:00:00 1.785 C 48.8667 %
413 18-11-2018 00:00:00 0.80333 C 30.7417 %
414 19-11-2018 00:00:00 2.95833 C 26.3167 %
415 20-11-2018 00:00:00 2.95167 C 25.6167 %
416 21-11-2018 00:00:00 1.93 C 37.9750 %
417 22-11-2018 00:00:00 2.22833 C 39.2750 %
418 23-11-2018 00:00:00 -0.8425 C 54.2583 %
419 24-11-2018 00:00:00 4.05833 C 58.0917 %
420 25-11-2018 00:00:00 5.29 C 56.7917 %
421 26-11-2018 00:00:00 6.09333 C 35.8583 %
422 27-11-2018 00:00:00 3.6075 C 30.9583 %
423 28-11-2018 00:00:00 2.97583 C 45.6917 %
424 29-11-2018 00:00:00 4.98333 C 47.6917 %
425 30-11-2018 00:00:00 6.67167 C 48.6583 %
Sensor: Nr:Datum:Temp:Feuchte:
Aussen-T/F 426 01-12-2018 00:00:00 6.67417 C 47.9750 %
427 02-12-2018 00:00:00 10.59167 C 45.4750 %
428 03-12-2018 00:00:00 11.02333 C 51.1333 %
429 04-12-2018 00:00:00 5.62 C 45.3833 %
430 05-12-2018 00:00:00 3.15546 C 56.8487 %
431 06-12-2018 00:00:00 9.21333 C 47.7750 %
432 07-12-2018 00:00:00 10.71583 C 33.9000 %
433 08-12-2018 00:00:00 7.28083 C 37.2333 %
434 09-12-2018 00:00:00 7.285 C 37.6917 %
435 10-12-2018 00:00:00 3.9825 C 44.3833 %
436 11-12-2018 00:00:00 2.87417 C 51.3500 %
437 12-12-2018 00:00:00 2.0375 C 58.1583 %
438 13-12-2018 00:00:00 0.49 C 37.0417 %
439 14-12-2018 00:00:00 0.48 C 20.9833 %
440 15-12-2018 00:00:00 -0.09083 C 24.2083 %
441 16-12-2018 00:00:00 0.045 C 43.8833 %
442 17-12-2018 00:00:00 3.4775 C 51.8333 %
443 18-12-2018 00:00:00 4.1675 C 41.5083 %
444 19-12-2018 00:00:00 5.75 C 37.3000 %
445 20-12-2018 00:00:00 6.87083 C 39.0583 %
446 21-12-2018 00:00:00 10.1725 C 34.4750 %
447 22-12-2018 00:00:00 9.26167 C 35.0083 %
448 23-12-2018 00:00:00 7.89333 C 46.8500 %
449 24-12-2018 00:00:00 4.10333 C 44.5000 %
450 25-12-2018 00:00:00 1.0625 C 49.8500 %
Sensor: Nr:Datum:Temp:Feuchte:
Aussen-T/F 451 26-12-2018 00:00:00 -1.61083 C 52.7667 %
452 27-12-2018 00:00:00 -0.68583 C 57.2917 %
453 28-12-2018 00:00:00 -0.61667 C 51.7667 %
454 29-12-2018 00:00:00 2.0175 C 45.4833 %
455 30-12-2018 00:00:00 6.73917 C 37.6417 %
456 31-12-2018 00:00:00 6.84917 C 56.5417 %
457 01-01-2019 00:00:00 6.345 C 45.5833 %
458 02-01-2019 00:00:00 2.72417 C 34.2083 %
459 03-01-2019 00:00:00 1.28167 C 47.5833 %
460 04-01-2019 00:00:00 2.41333 C 45.7833 %
461 05-01-2019 00:00:00 5.14417 C 47.4583 %
462 06-01-2019 00:00:00 5.0725 C 44.3083 %
463 07-01-2019 00:00:00 4.8875 C 41.5500 %
464 08-01-2019 00:00:00 5.74917 C 36.7000 %
465 09-01-2019 00:00:00 3.05083 C 34.6917 %
466 10-01-2019 00:00:00 1.36 C 32.5417 %
467 11-01-2019 00:00:00 2.05417 C 54.0417 %
468 12-01-2019 00:00:00 5.01833 C 46.3583 %
469 13-01-2019 00:00:00 6.9225 C 47.7417 %
470 14-01-2019 00:00:00 4.06833 C 43.5667 %
471 15-01-2019 00:00:00 4.06833 C 40.0333 %
472 16-01-2019 00:00:00 4.52583 C 35.3417 %
473 17-01-2019 00:00:00 4.27167 C 37.9583 %
474 18-01-2019 00:00:00 -0.2025 C 49.3250 %
475 19-01-2019 00:00:00 -3.87667 C 48.1333 %
Sensor: Nr:Datum:Temp:Feuchte:
Aussen-T/F 476 20-01-2019 00:00:00 -6.33 C 47.2250 %
477 21-01-2019 00:00:00 -7.505 C 46.8917 %
478 22-01-2019 00:00:00 -5.97917 C 44.1750 %
479 23-01-2019 00:00:00 -2.435 C 39.5667 %
480 24-01-2019 00:00:00 -2.72417 C 26.7667 %
481 25-01-2019 00:00:00 -0.50917 C 39.3333 %
482 26-01-2019 00:00:00 3.62167 C 45.9417 %
483 27-01-2019 00:00:00 4.94833 C 43.1917 %
484 28-01-2019 00:00:00 2.2025 C 45.2417 %
485 29-01-2019 00:00:00 0.865 C 44.1667 %
486 30-01-2019 00:00:00 -0.46833 C 49.8250 %
487 31-01-2019 00:00:00 -1.03333 C 52.2750 %
488 01-02-2019 00:00:00 0.72167 C 56.8333 %
489 02-02-2019 00:00:00 1.59587 C 62.5950 %
490 03-02-2019 00:00:00 1.86583 C 40.0750 %
491 04-02-2019 00:00:00 0.99417 C 40.5833 %
492 05-02-2019 00:00:00 3.66167 C 30.5917 %
493 06-02-2019 00:00:00 0.09417 C 46.8417 %
494 07-02-2019 00:00:00 4.26083 C 38.9917 %
495 08-02-2019 00:00:00 6.77417 C 31.6250 %
496 09-02-2019 00:00:00 8.02083 C 28.8667 %
497 10-02-2019 00:00:00 7.15083 C 39.6167 %
498 11-02-2019 00:00:00 4.03667 C 38.3917 %
499 12-02-2019 00:00:00 3.01917 C 38.2083 %
500 13-02-2019 00:00:00 0.96333 C 46.8167 %
Sensor: Nr:Datum:Temp:Feuchte:
Aussen-T/F 501 14-02-2019 00:00:00 -0.46667 C 51.0250 %
502 15-02-2019 00:00:00 0.9925 C 45.0667 %
503 16-02-2019 00:00:00 1.9325 C 47.3750 %
504 17-02-2019 00:00:00 2.17333 C 49.1333 %
505 18-02-2019 00:00:00 2.31167 C 43.0500 %
506 19-02-2019 00:00:00 4.89 C 40.9750 %
507 20-02-2019 00:00:00 3.7725 C 45.5000 %
508 21-02-2019 00:00:00 5.655 C 46.3667 %
509 22-02-2019 00:00:00 9.27167 C 39.5167 %
510 23-02-2019 00:00:00 4.58167 C 33.2583 %
511 24-02-2019 00:00:00 2.29833 C 32.9417 %
512 25-02-2019 00:00:00 3.65667 C 31.8250 %
513 26-02-2019 00:00:00 4.75583 C 37.6333 %
514 27-02-2019 00:00:00 5.17417 C 38.9250 %
515 28-02-2019 00:00:00 8.185 C 29.8833 %
516 01-03-2019 00:00:00 7.515 C 43.8250 %
517 02-03-2019 00:00:00 8.29333 C 34.1417 %
518 03-03-2019 00:00:00 10.72417 C 28.1417 %
519 04-03-2019 00:00:00 9.1575 C 27.8167 %
520 05-03-2019 00:00:00 6.32167 C 30.8917 %
521 06-03-2019 00:00:00 9.5125 C 32.3667 %
522 07-03-2019 00:00:00 9.61917 C 28.3833 %
523 08-03-2019 00:00:00 7.73167 C 28.8250 %
524 09-03-2019 00:00:00 10.01667 C 26.3333 %
525 10-03-2019 00:00:00 9.11083 C 30.1417 %
Sensor: Nr:Datum:Temp:Feuchte:
Aussen-T/F 526 11-03-2019 00:00:00 4.19667 C 30.2417 %
527 12-03-2019 00:00:00 6.18083 C 27.8583 %
528 13-03-2019 00:00:00 5.6775 C 31.5250 %
529 14-03-2019 00:00:00 6.3325 C 38.0083 %
530 15-03-2019 00:00:00 9.61417 C 37.6917 %
531 16-03-2019 00:00:00 9.76833 C 35.9667 %
532 17-03-2019 00:00:00 8.19083 C 26.8333 %
533 18-03-2019 00:00:00 4.3225 C 36.6583 %
534 19-03-2019 00:00:00 3.115 C 40.3583 %
535 20-03-2019 00:00:00 4.81417 C 37.4250 %
536 21-03-2019 00:00:00 6.76333 C 35.7167 %
537 22-03-2019 00:00:00 8.43083 C 34.0750 %
538 23-03-2019 00:00:00 5.40167 C 40.0083 %
539 24-03-2019 00:00:00 5.90583 C 38.2167 %
540 25-03-2019 00:00:00 4.41583 C 37.7583 %
541 26-03-2019 00:00:00 6.33417 C 32.9583 %
542 27-03-2019 00:00:00 6.36583 C 35.3083 %
543 28-03-2019 00:00:00 6.955 C 36.2417 %
544 29-03-2019 00:00:00 8.44167 C 38.7750 %
545 30-03-2019 00:00:00 10.07583 C 34.1833 %
546 31-03-2019 00:00:00 9.90957 C 33.8174 %
547 01-04-2019 00:00:00 8.9475 C 32.5750 %
548 02-04-2019 00:00:00 10.5425 C 29.3083 %
549 03-04-2019 00:00:00 7.865 C 38.6750 %
550 04-04-2019 00:00:00 5.56833 C 48.7000 %
Sensor: Nr:Datum:Temp:Feuchte:
Aussen-T/F 551 05-04-2019 00:00:00 5.95417 C 48.0167 %
552 06-04-2019 00:00:00 9.88333 C 42.1917 %
553 07-04-2019 00:00:00 11.50833 C 36.8000 %
554 08-04-2019 00:00:00 12.34417 C 33.9167 %
555 09-04-2019 00:00:00 12.00333 C 40.7333 %
556 10-04-2019 00:00:00 10.585 C 23.8417 %
557 11-04-2019 00:00:00 6.52917 C 25.0583 %
558 12-04-2019 00:00:00 4.68167 C 20.0000 %
559 13-04-2019 00:00:00 3.585 C 24.4167 %
560 14-04-2019 00:00:00 5.23833 C 34.7917 %
561 15-04-2019 00:00:00 10.29167 C 25.8000 %
562 16-04-2019 00:00:00 10.91333 C 23.2000 %
563 17-04-2019 00:00:00 12.4 C 35.6083 %
564 18-04-2019 00:00:00 13.7675 C 28.5500 %
565 19-04-2019 00:00:00 14.94917 C 24.5083 %
566 20-04-2019 00:00:00 14.60167 C 27.5833 %
567 21-04-2019 00:00:00 15.24333 C 24.6417 %
568 22-04-2019 00:00:00 14.7825 C 27.5667 %
569 23-04-2019 00:00:00 15.12667 C 20.1083 %
570 24-04-2019 00:00:00 15.10083 C 30.7083 %
571 25-04-2019 00:00:00 13.2425 C 38.0667 %
572 26-04-2019 00:00:00 11.8 C 32.0000 %
573 27-04-2019 00:00:00 9.01583 C 40.3667 %
574 28-04-2019 00:00:00 8.43333 C 30.9750 %
575 29-04-2019 00:00:00 8.62417 C 38.4083 %
Sensor: Nr:Datum:Temp:Feuchte:
Aussen-T/F 576 30-04-2019 00:00:00 13.94583 C 26.0833 %
577 01-05-2019 00:00:00 13.03833 C 29.5000 %
578 02-05-2019 00:00:00 12.08333 C 31.3667 %
579 03-05-2019 00:00:00 11.20833 C 25.1500 %
580 04-05-2019 00:00:00 6.17583 C 33.4500 %
581 05-05-2019 00:00:00 6.66333 C 32.0417 %
582 06-05-2019 00:00:00 7.6075 C 30.6583 %
583 07-05-2019 00:00:00 9.645 C 28.6167 %
584 08-05-2019 00:00:00 9.105 C 38.9750 %
585 09-05-2019 00:00:00 11.085 C 36.9583 %
586 10-05-2019 00:00:00 12.44538 C 33.3866 %
587 11-05-2019 00:00:00 9.52833 C 47.9417 %
588 12-05-2019 00:00:00 9.4 C 31.3083 %
589 13-05-2019 00:00:00 9.985 C 30.9083 %
590 14-05-2019 00:00:00 9.66333 C 26.4333 %
591 15-05-2019 00:00:00 10.57083 C 24.3500 %
592 16-05-2019 00:00:00 10.61167 C 23.0917 %
593 17-05-2019 00:00:00 11.4775 C 39.7250 %
594 18-05-2019 00:00:00 14.67167 C 39.3500 %
595 19-05-2019 00:00:00 15.91083 C 38.3750 %
596 20-05-2019 00:00:00 13.655 C 37.8667 %
597 21-05-2019 00:00:00 11.88167 C 45.6167 %
598 22-05-2019 00:00:00 13.2875 C 33.7833 %
599 23-05-2019 00:00:00 15.22667 C 33.1417 %
600 24-05-2019 00:00:00 17.24 C 28.7500 %
Sensor: Nr:Datum:Temp:Feuchte:
Aussen-T/F 601 25-05-2019 00:00:00 15.89917 C 22.8167 %
602 26-05-2019 00:00:00 16.26667 C 29.2667 %
603 27-05-2019 00:00:00 14.66667 C 40.5417 %
604 28-05-2019 00:00:00 14.29917 C 38.6250 %
605 29-05-2019 00:00:00 15.28667 C 25.9000 %
606 30-05-2019 00:00:00 15.82833 C 28.8250 %
607 31-05-2019 00:00:00 19.45583 C 30.4167 %
608 01-06-2019 00:00:00 20.21917 C 30.3583 %
609 02-06-2019 00:00:00 22.16417 C 30.0500 %
610 03-06-2019 00:00:00 21.1475 C 27.1667 %
611 04-06-2019 00:00:00 21.80333 C 28.3333 %
612 05-06-2019 00:00:00 23.57917 C 22.7833 %
613 06-06-2019 00:00:00 16.14167 C 28.3667 %
614 07-06-2019 00:00:00 16.10083 C 29.5250 %
615 08-06-2019 00:00:00 16.40917 C 20.2667 %
616 09-06-2019 00:00:00 16.72333 C 27.7667 %
617 10-06-2019 00:00:00 19.705 C 23.4750 %
618 11-06-2019 00:00:00 17.38 C 32.4667 %
619 12-06-2019 00:00:00 16.405 C 33.2917 %
620 13-06-2019 00:00:00 16.27917 C 34.4333 %
621 14-06-2019 00:00:00 18.17 C 35.6583 %
622 15-06-2019 00:00:00 19.72583 C 33.0250 %
623 16-06-2019 00:00:00 19.94417 C 24.9167 %
624 17-06-2019 00:00:00 19.5125 C 29.1250 %
625 18-06-2019 00:00:00 22.02333 C 27.1333 %
Sensor: Nr:Datum:Temp:Feuchte:
Aussen-T/F 626 19-06-2019 00:00:00 22.62583 C 27.6917 %
627 20-06-2019 00:00:00 20 C 28.0167 %
628 21-06-2019 00:00:00 19.3425 C 27.3333 %
629 22-06-2019 00:00:00 19.82667 C 26.6167 %
630 23-06-2019 00:00:00 22.3125 C 27.3750 %
631 24-06-2019 00:00:00 24.96167 C 26.2167 %
632 25-06-2019 00:00:00 26.83333 C 24.5583 %
633 26-06-2019 00:00:00 27.635 C 23.0833 %
634 27-06-2019 00:00:00 25.18917 C 20.6083 %
635 28-06-2019 00:00:00 22.44833 C 23.4333 %
636 29-06-2019 00:00:00 24.38417 C 22.1750 %
637 30-06-2019 00:00:00 26.0575 C 22.2333 %
638 01-07-2019 00:00:00 23.3825 C 20.0000 %
639 02-07-2019 00:00:00 19.63333 C 21.8667 %
640 03-07-2019 00:00:00 18.14583 C 22.9833 %
641 04-07-2019 00:00:00 18.95917 C 21.7583 %
642 05-07-2019 00:00:00 21.28 C 20.0000 %
643 06-07-2019 00:00:00 21.86 C 21.2917 %
644 07-07-2019 00:00:00 17.9975 C 24.5833 %
645 08-07-2019 00:00:00 14.77583 C 24.3917 %
646 09-07-2019 00:00:00 15.65583 C 24.6667 %
647 10-07-2019 00:00:00 17.64083 C 24.2083 %
648 11-07-2019 00:00:00 17.65083 C 31.2583 %
649 12-07-2019 00:00:00 17.16583 C 43.6333 %
650 13-07-2019 00:00:00 17.9575 C 34.1250 %
Sensor: Nr:Datum:Temp:Feuchte:
Aussen-T/F 651 14-07-2019 00:00:00 17.12917 C 26.6667 %
652 15-07-2019 00:00:00 16.56667 C 21.0917 %
653 16-07-2019 00:00:00 16.26 C 28.0333 %
654 17-07-2019 00:00:00 17.56833 C 29.2083 %
655 18-07-2019 00:00:00 19.38333 C 28.1917 %
656 19-07-2019 00:00:00 20.12667 C 31.9750 %
657 20-07-2019 00:00:00 21.81667 C 30.3083 %
658 21-07-2019 00:00:00 22.37333 C 25.8833 %
659 22-07-2019 00:00:00 22.7225 C 26.2833 %
660 23-07-2019 00:00:00 25.34083 C 25.5333 %
661 24-07-2019 00:00:00 27.1975 C 24.2750 %
662 25-07-2019 00:00:00 28.90167 C 21.7333 %
663 26-07-2019 00:00:00 27.54417 C 21.2500 %
664 27-07-2019 00:00:00 23.4375 C 26.6833 %
665 28-07-2019 00:00:00 19.93083 C 38.1333 %
666 29-07-2019 00:00:00 21.45583 C 29.3333 %
667 30-07-2019 00:00:00 22.35833 C 26.7167 %
668 31-07-2019 00:00:00 21.48417 C 20.5333 %
669 01-08-2019 00:00:00 19.83417 C 22.9750 %
670 02-08-2019 00:00:00 20.8775 C 22.8500 %
671 03-08-2019 00:00:00 20.77167 C 24.6333 %
672 04-08-2019 00:00:00 21.00667 C 28.3000 %
673 05-08-2019 00:00:00 22.56833 C 24.9167 %
674 06-08-2019 00:00:00 20.0075 C 30.3333 %
675 07-08-2019 00:00:00 19.10167 C 41.3833 %
Sensor: Nr:Datum:Temp:Feuchte:
Aussen-T/F 676 08-08-2019 00:00:00 20.55667 C 30.6417 %
677 09-08-2019 00:00:00 19.73833 C 39.4583 %
678 10-08-2019 00:00:00 20.72917 C 37.6833 %
679 11-08-2019 00:00:00 17.03333 C 35.9000 %
680 12-08-2019 00:00:00 16.51583 C 38.9833 %
681 13-08-2019 00:00:00 16.10833 C 35.2833 %
682 14-08-2019 00:00:00 16.6875 C 34.0417 %
683 15-08-2019 00:00:00 17.20583 C 40.0250 %
684 16-08-2019 00:00:00 17.84 C 34.2250 %
685 17-08-2019 00:00:00 17.89333 C 38.0750 %
686 18-08-2019 00:00:00 19.71833 C 44.5000 %
687 19-08-2019 00:00:00 18.45167 C 33.8417 %
688 20-08-2019 00:00:00 15.91167 C 33.3250 %
689 21-08-2019 00:00:00 16.52917 C 33.4750 %
690 22-08-2019 00:00:00 17.12333 C 32.3667 %
691 23-08-2019 00:00:00 18.31667 C 31.5083 %
692 24-08-2019 00:00:00 19.36333 C 30.9833 %
693 25-08-2019 00:00:00 21.54583 C 29.8917 %
694 26-08-2019 00:00:00 22.17 C 33.4833 %
695 27-08-2019 00:00:00 22.70333 C 35.1667 %
696 28-08-2019 00:00:00 23.4425 C 30.4583 %
697 29-08-2019 00:00:00 22.20333 C 28.3583 %
698 30-08-2019 00:00:00 21.07 C 29.2583 %
699 31-08-2019 00:00:00 21.975 C 30.7583 %
700 01-09-2019 00:00:00 18.8525 C 26.8333 %
Sensor: Nr:Datum:Temp:Feuchte:
Aussen-T/F 701 02-09-2019 00:00:00 15.49333 C 28.2000 %
702 03-09-2019 00:00:00 15.72917 C 28.0833 %
703 04-09-2019 00:00:00 16.9525 C 33.9667 %
704 05-09-2019 00:00:00 15.59 C 26.2917 %
705 06-09-2019 00:00:00 13.58917 C 31.1917 %
706 07-09-2019 00:00:00 12.6975 C 39.5000 %
707 08-09-2019 00:00:00 12.7439 C 48.5935 %
708 09-09-2019 00:00:00 15.23733 C 38.6667 %
709 10-09-2019 00:00:00 12.20486 C 22.8264 %
710 11-09-2019 00:00:00 13.35556 C 20.8472 %
711 12-09-2019 00:00:00 19.325 C 20.0000 %
712 13-09-2019 00:00:00 17.86806 C 20.1111 %
713 14-09-2019 00:00:00 15.93333 C 22.4375 %
714 15-09-2019 00:00:00 15.65694 C 21.2778 %
715 16-09-2019 00:00:00 16.21389 C 20.0000 %
716 17-09-2019 00:00:00 15.87708 C 20.0000 %
717 18-09-2019 00:00:00 11.47361 C 20.7917 %
718 19-09-2019 00:00:00 10.53333 C 21.8194 %
719 20-09-2019 00:00:00 10.80486 C 20.8472 %
720 21-09-2019 00:00:00 12.45278 C 20.6597 %
721 22-09-2019 00:00:00 14.78542 C 20.7500 %
722 23-09-2019 00:00:00 16.6875 C 22.1528 %
723 24-09-2019 00:00:00 13.94306 C 26.6319 %
724 25-09-2019 00:00:00 15.31806 C 25.0417 %
725 26-09-2019 00:00:00 16.10903 C 26.0000 %
Sensor: Nr:Datum:Temp:Feuchte:
Aussen-T/F 726 27-09-2019 00:00:00 16.23333 C 23.7708 %
727 28-09-2019 00:00:00 15.40208 C 22.5833 %
728 29-09-2019 00:00:00 16.05972 C 21.6597 %
729 30-09-2019 00:00:00 15.48194 C 21.1319 %
730 01-10-2019 00:00:00 15.84375 C 23.4931 %
731 02-10-2019 00:00:00 12.57569 C 23.6111 %
732 03-10-2019 00:00:00 9.35625 C 27.6944 %
733 04-10-2019 00:00:00 10.03681 C 31.8403 %
734 05-10-2019 00:00:00 10.32986 C 26.5903 %
735 06-10-2019 00:00:00 7.85764 C 34.1250 %
736 07-10-2019 00:00:00 9.80764 C 31.8819 %
737 08-10-2019 00:00:00 12.35833 C 31.0694 %
738 09-10-2019 00:00:00 11.56667 C 27.7431 %
739 10-10-2019 00:00:00 11.49097 C 26.2153 %
740 11-10-2019 00:00:00 12.41458 C 28.8194 %
741 12-10-2019 00:00:00 13.21111 C 29.6875 %
742 13-10-2019 00:00:00 16.35417 C 28.4722 %
743 14-10-2019 00:00:00 15.8125 C 27.6528 %
744 15-10-2019 00:00:00 13.94028 C 29.8611 %
745 16-10-2019 00:00:00 12.42153 C 29.2917 %
746 17-10-2019 00:00:00 14.32708 C 27.4167 %
747 18-10-2019 00:00:00 12.3125 C 29.7292 %
748 19-10-2019 00:00:00 12.78194 C 28.2083 %
749 20-10-2019 00:00:00 13.0875 C 34.7778 %
750 21-10-2019 00:00:00 13.30486 C 29.2014 %
Sensor: Nr:Datum:Temp:Feuchte:
Aussen-T/F 751 22-10-2019 00:00:00 11.45 C 27.8819 %
752 23-10-2019 00:00:00 10.68403 C 31.1181 %
753 24-10-2019 00:00:00 13.85208 C 27.9236 %
754 25-10-2019 00:00:00 13.1625 C 24.9444 %
755 26-10-2019 00:00:00 12.72639 C 27.5417 %
756 27-10-2019 00:00:00 9.68467 C 30.8733 %
757 28-10-2019 00:00:00 5.91597 C 35.2014 %
758 29-10-2019 00:00:00 6.21181 C 29.3264 %
759 30-10-2019 00:00:00 2.93333 C 34.5347 %
760 31-10-2019 00:00:00 1.41875 C 34.8333 %
761 01-11-2019 00:00:00 5.44792 C 36.7292 %
762 02-11-2019 00:00:00 12.8125 C 27.6458 %
763 03-11-2019 00:00:00 11.45069 C 29.7639 %
764 04-11-2019 00:00:00 9.88542 C 30.2153 %
765 05-11-2019 00:00:00 9.25069 C 27.4306 %
766 06-11-2019 00:00:00 8.33542 C 34.7014 %
767 07-11-2019 00:00:00 7.30278 C 33.8333 %
768 08-11-2019 00:00:00 4.29028 C 37.7153 %
769 09-11-2019 00:00:00 4.26806 C 33.1111 %
770 10-11-2019 00:00:00 2.51319 C 34.9861 %
771 11-11-2019 00:00:00 4.2 C 27.4792 %
772 12-11-2019 00:00:00 5.41667 C 25.4792 %
773 13-11-2019 00:00:00 4.93472 C 22.9861 %
774 14-11-2019 00:00:00 4.86042 C 26.9861 %
775 15-11-2019 00:00:00 4.08472 C 26.3333 %
Sensor: Nr:Datum:Temp:Feuchte:
Aussen-T/F 776 16-11-2019 00:00:00 1.19444 C 38.8125 %
777 17-11-2019 00:00:00 2.39861 C 40.2708 %
778 18-11-2019 00:00:00 3.51667 C 36.2847 %
779 19-11-2019 00:00:00 3.06736 C 36.5833 %
780 20-11-2019 00:00:00 0.75972 C 37.8403 %
781 21-11-2019 00:00:00 1.18951 C 39.3846 %
782 22-11-2019 00:00:00 3.65972 C 35.6806 %
783 23-11-2019 00:00:00 4.64653 C 33.3889 %
784 24-11-2019 00:00:00 1.99861 C 41.4722 %
785 25-11-2019 00:00:00 4.16319 C 39.3681 %
786 26-11-2019 00:00:00 7.75903 C 34.8472 %
787 27-11-2019 00:00:00 9.72083 C 30.6875 %
788 28-11-2019 00:00:00 10.55833 C 22.1319 %
789 29-11-2019 00:00:00 5.75486 C 30.7639 %
790 30-11-2019 00:00:00 0.48194 C 42.0972 %
791 01-12-2019 00:00:00 1.14236 C 33.0139 %
792 02-12-2019 00:00:00 1.20556 C 36.2986 %
793 03-12-2019 00:00:00 3.97431 C 39.2292 %
794 04-12-2019 00:00:00 0.41389 C 41.6111 %
795 05-12-2019 00:00:00 -2.03194 C 42.0972 %
796 06-12-2019 00:00:00 2.6125 C 34.4722 %
797 07-12-2019 00:00:00 8.20694 C 27.7292 %
798 08-12-2019 00:00:00 9.69931 C 24.2778 %
799 09-12-2019 00:00:00 7.09444 C 23.9722 %
800 10-12-2019 00:00:00 2.37361 C 34.0000 %
Sensor: Nr:Datum:Temp:Feuchte:
Aussen-T/F 801 11-12-2019 00:00:00 3.12569 C 39.3056 %
802 12-12-2019 00:00:00 2.64931 C 37.2500 %
803 13-12-2019 00:00:00 3.25278 C 34.0069 %
804 14-12-2019 00:00:00 6.22222 C 28.0625 %
805 15-12-2019 00:00:00 7.24792 C 30.8958 %
806 16-12-2019 00:00:00 7.47361 C 39.2986 %
807 17-12-2019 00:00:00 9.69514 C 31.9653 %
808 18-12-2019 00:00:00 6.95069 C 37.4792 %
809 19-12-2019 00:00:00 4.60972 C 40.5417 %
810 20-12-2019 00:00:00 6.87778 C 35.7847 %
811 21-12-2019 00:00:00 6.42778 C 32.4306 %
812 22-12-2019 00:00:00 7.57917 C 31.0556 %
813 23-12-2019 00:00:00 7.34861 C 28.6111 %
814 24-12-2019 00:00:00 7.20278 C 29.9097 %
815 25-12-2019 00:00:00 6.91944 C 32.8333 %
816 26-12-2019 00:00:00 4.25278 C 40.6250 %
817 27-12-2019 00:00:00 4.41181 C 36.8819 %
818 28-12-2019 00:00:00 -1.22431 C 42.5000 %
819 29-12-2019 00:00:00 -2.07708 C 39.8819 %
820 30-12-2019 00:00:00 -1.99931 C 39.1319 %
821 31-12-2019 00:00:00 -0.41736 C 39.5556 %
822 01-01-2020 00:00:00 -0.10764 C 41.3403 %
823 02-01-2020 00:00:00 0.98958 C 39.7014 %
824 03-01-2020 00:00:00 7.00972 C 33.4653 %
825 04-01-2020 00:00:00 4.78264 C 32.5903 %
Sensor: Nr:Datum:Temp:Feuchte:
Aussen-T/F 826 05-01-2020 00:00:00 5.21806 C 35.8750 %
827 06-01-2020 00:00:00 2.11667 C 38.1667 %
828 07-01-2020 00:00:00 4.43611 C 34.6944 %
829 08-01-2020 00:00:00 7.71389 C 34.4167 %
830 09-01-2020 00:00:00 10.33542 C 35.2292 %
831 10-01-2020 00:00:00 8.27917 C 30.8958 %
832 11-01-2020 00:00:00 3.61806 C 33.7639 %
833 12-01-2020 00:00:00 4.57083 C 30.3889 %
834 13-01-2020 00:00:00 5.88472 C 35.0903 %
835 14-01-2020 00:00:00 9.28264 C 24.1181 %
836 15-01-2020 00:00:00 10.27083 C 23.7500 %
837 16-01-2020 00:00:00 7.07569 C 40.1944 %
838 17-01-2020 00:00:00 5.27986 C 39.1944 %
839 18-01-2020 00:00:00 3.79028 C 32.6042 %
840 19-01-2020 00:00:00 3.01389 C 40.8194 %
841 20-01-2020 00:00:00 1.64861 C 39.3889 %
842 21-01-2020 00:00:00 -2.675 C 44.7986 %
843 22-01-2020 00:00:00 -1.95347 C 44.7153 %
844 23-01-2020 00:00:00 0.53819 C 43.6458 %
845 24-01-2020 00:00:00 0.81319 C 35.7222 %
846 25-01-2020 00:00:00 1.99236 C 39.2014 %
847 26-01-2020 00:00:00 2.13056 C 41.5625 %
848 27-01-2020 00:00:00 5.48542 C 39.8264 %
849 28-01-2020 00:00:00 5.07708 C 30.3750 %
850 29-01-2020 00:00:00 4.20764 C 29.8611 %
Sensor: Nr:Datum:Temp:Feuchte:
Aussen-T/F 851 30-01-2020 00:00:00 7.57569 C 29.5694 %
852 31-01-2020 00:00:00 12.86181 C 27.9167 %
853 01-02-2020 00:00:00 11.16597 C 32.0972 %
854 02-02-2020 00:00:00 9.925 C 31.1319 %
855 03-02-2020 00:00:00 10.19236 C 29.5139 %
856 04-02-2020 00:00:00 4.29514 C 36.4097 %
857 05-02-2020 00:00:00 3.05069 C 37.1458 %
858 06-02-2020 00:00:00 0.04514 C 42.7500 %
859 07-02-2020 00:00:00 -0.30764 C 42.8264 %
860 08-02-2020 00:00:00 1.01389 C 43.0069 %
861 09-02-2020 00:00:00 8.36458 C 32.5764 %
862 10-02-2020 00:00:00 7.85 C 31.3611 %
863 11-02-2020 00:00:00 5.29167 C 24.6597 %
864 12-02-2020 00:00:00 4.32083 C 30.5972 %
865 13-02-2020 00:00:00 3.32917 C 42.1250 %
866 14-02-2020 00:00:00 5.46458 C 39.2639 %
867 15-02-2020 00:00:00 5.89931 C 38.0278 %
868 16-02-2020 00:00:00 14.44931 C 23.2431 %
869 17-02-2020 00:00:00 8.25903 C 32.4167 %
870 18-02-2020 00:00:00 6.89097 C 31.0347 %
871 19-02-2020 00:00:00 5.73889 C 30.1875 %
872 20-02-2020 00:00:00 7.7125 C 32.9722 %
873 21-02-2020 00:00:00 4.71042 C 33.5972 %
874 22-02-2020 00:00:00 7.67986 C 30.0347 %
875 23-02-2020 00:00:00 10.01389 C 35.3403 %
Sensor: Nr:Datum:Temp:Feuchte:
Aussen-T/F 876 24-02-2020 00:00:00 7.74653 C 36.3194 %
877 25-02-2020 00:00:00 8.81597 C 32.2778 %
878 26-02-2020 00:00:00 4.37431 C 33.6806 %
879 27-02-2020 00:00:00 2.22153 C 41.6806 %
880 28-02-2020 00:00:00 3.52431 C 38.4514 %
881 29-02-2020 00:00:00 8.60556 C 34.8889 %
882 01-03-2020 00:00:00 7.15694 C 36.0000 %
883 02-03-2020 00:00:00 5.99375 C 40.1667 %
884 03-03-2020 00:00:00 4.26806 C 39.6458 %
885 04-03-2020 00:00:00 5.28958 C 37.5764 %
886 05-03-2020 00:00:00 5.45764 C 43.0833 %
887 06-03-2020 00:00:00 5.63958 C 40.4931 %
888 07-03-2020 00:00:00 6.26458 C 33.7569 %
889 08-03-2020 00:00:00 9.46458 C 32.2361 %
890 09-03-2020 00:00:00 7.81875 C 35.4514 %
891 10-03-2020 00:00:00 9.06181 C 39.4514 %
892 11-03-2020 00:00:00 14.0375 C 35.2639 %
893 12-03-2020 00:00:00 11.01597 C 30.3681 %
894 13-03-2020 00:00:00 6.99236 C 33.4236 %
895 14-03-2020 00:00:00 5.89028 C 38.1667 %
896 15-03-2020 00:00:00 9.14653 C 32.2153 %
897 16-03-2020 00:00:00 9.43264 C 35.6667 %
898 17-03-2020 00:00:00 12.02708 C 33.7847 %
899 18-03-2020 00:00:00 9.92639 C 36.2153 %
900 19-03-2020 00:00:00 12.58194 C 32.0417 %
Sensor: Nr:Datum:Temp:Feuchte:
Aussen-T/F 901 20-03-2020 00:00:00 10.52657 C 36.2308 %
902 21-03-2020 00:00:00 5.89653 C 34.6597 %
903 22-03-2020 00:00:00 4.30139 C 28.5278 %
904 23-03-2020 00:00:00 3.12292 C 27.0764 %
905 24-03-2020 00:00:00 2.82431 C 27.8403 %
906 25-03-2020 00:00:00 3.67014 C 25.0486 %
907 26-03-2020 00:00:00 5.25486 C 23.4931 %
908 27-03-2020 00:00:00 8.10139 C 29.8819 %
909 28-03-2020 00:00:00 9.69236 C 30.9306 %
910 29-03-2020 00:00:00 5.0942 C 30.1377 %
911 30-03-2020 00:00:00 2.89028 C 29.9167 %
912 31-03-2020 00:00:00 5.79792 C 30.1528 %
913 01-04-2020 00:00:00 4.16111 C 29.6944 %
914 02-04-2020 00:00:00 5.26806 C 31.1944 %
915 03-04-2020 00:00:00 7.93542 C 28.5069 %
916 04-04-2020 00:00:00 6.89375 C 31.8958 %
917 05-04-2020 00:00:00 9.74514 C 32.0625 %
918 06-04-2020 00:00:00 12.17708 C 29.7431 %
919 07-04-2020 00:00:00 14.2875 C 28.9028 %
920 08-04-2020 00:00:00 15.02153 C 31.1528 %
921 09-04-2020 00:00:00 15.89514 C 27.6458 %
922 10-04-2020 00:00:00 14.80972 C 29.8333 %
923 11-04-2020 00:00:00 14.775 C 25.4861 %
924 12-04-2020 00:00:00 15.71319 C 27.3056 %
925 13-04-2020 00:00:00 9.43542 C 29.6944 %
Sensor: Nr:Datum:Temp:Feuchte:
Aussen-T/F 926 14-04-2020 00:00:00 6.54583 C 28.1042 %
927 15-04-2020 00:00:00 9.17222 C 30.8750 %
928 16-04-2020 00:00:00 13.09792 C 29.6667 %
929 17-04-2020 00:00:00 15.68056 C 30.2500 %
930 18-04-2020 00:00:00 14.81597 C 32.5000 %
931 19-04-2020 00:00:00 13.35694 C 32.8889 %
932 20-04-2020 00:00:00 12.80069 C 22.9861 %
933 21-04-2020 00:00:00 13.68472 C 21.3889 %
934 22-04-2020 00:00:00 14.69375 C 23.2153 %
935 23-04-2020 00:00:00 14.90347 C 25.2917 %
936 24-04-2020 00:00:00 14.72361 C 27.0278 %
937 25-04-2020 00:00:00 13.03611 C 25.6597 %
938 26-04-2020 00:00:00 12.22917 C 31.0069 %
939 27-04-2020 00:00:00 13.17153 C 29.7431 %
940 28-04-2020 00:00:00 12.62153 C 36.5556 %
941 29-04-2020 00:00:00 14.57569 C 31.0903 %
942 30-04-2020 00:00:00 12.09722 C 36.4583 %
943 01-05-2020 00:00:00 10.66042 C 37.3542 %
944 02-05-2020 00:00:00 10.00764 C 36.3611 %
945 03-05-2020 00:00:00 10.75833 C 34.4653 %
946 04-05-2020 00:00:00 11.74722 C 36.3681 %
947 05-05-2020 00:00:00 11.26667 C 32.2083 %
948 06-05-2020 00:00:00 11.08403 C 30.6181 %
949 07-05-2020 00:00:00 13.50764 C 30.8056 %
950 08-05-2020 00:00:00 15.85208 C 29.3056 %
Sensor: Nr:Datum:Temp:Feuchte:
Aussen-T/F 951 09-05-2020 00:00:00 16.28611 C 29.0139 %
952 10-05-2020 00:00:00 15.97153 C 36.6389 %
953 11-05-2020 00:00:00 9.26875 C 32.4028 %
954 12-05-2020 00:00:00 8.55764 C 29.8264 %
955 13-05-2020 00:00:00 9.41528 C 30.4444 %
956 14-05-2020 00:00:00 9.74792 C 29.2917 %
957 15-05-2020 00:00:00 11.27986 C 28.5903 %
958 16-05-2020 00:00:00 11.95833 C 29.2986 %
959 17-05-2020 00:00:00 14.25556 C 28.0625 %
960 18-05-2020 00:00:00 16.81042 C 28.8681 %
961 19-05-2020 00:00:00 17.67986 C 29.2153 %
962 20-05-2020 00:00:00 18.90417 C 29.3611 %
963 21-05-2020 00:00:00 20.425 C 29.2361 %
964 22-05-2020 00:00:00 20.27222 C 29.9583 %
965 23-05-2020 00:00:00 13.65972 C 37.1111 %
966 24-05-2020 00:00:00 13.68056 C 31.3750 %
967 25-05-2020 00:00:00 16.41181 C 30.5625 %
968 26-05-2020 00:00:00 15.69306 C 31.7292 %
969 27-05-2020 00:00:00 18.09444 C 29.6597 %
970 28-05-2020 00:00:00 18.81736 C 24.7153 %
971 29-05-2020 00:00:00 16.43681 C 26.8056 %
972 30-05-2020 00:00:00 16.61667 C 24.5000 %
973 31-05-2020 00:00:00 16.21736 C 26.2153 %
974 01-06-2020 00:00:00 19.27153 C 26.8889 %
975 02-06-2020 00:00:00 21.30486 C 25.6250 %
Sensor: Nr:Datum:Temp:Feuchte:
Aussen-T/F 976 03-06-2020 00:00:00 21.06597 C 25.1042 %
977 04-06-2020 00:00:00 14.39583 C 39.8403 %
978 05-06-2020 00:00:00 11.4625 C 37.4306 %
979 06-06-2020 00:00:00 12.76111 C 34.0347 %
980 07-06-2020 00:00:00 13.84514 C 31.7083 %
981 08-06-2020 00:00:00 15.57014 C 31.2986 %
982 09-06-2020 00:00:00 14.49861 C 37.8333 %
983 10-06-2020 00:00:00 15.8625 C 35.7431 %
984 11-06-2020 00:00:00 15.99028 C 36.5486 %
985 12-06-2020 00:00:00 20.73403 C 31.5139 %
986 13-06-2020 00:00:00 21.73403 C 27.8889 %
987 14-06-2020 00:00:00 19.10208 C 32.2222 %
988 15-06-2020 00:00:00 19.14306 C 31.8264 %
989 16-06-2020 00:00:00 18.22986 C 36.8750 %
990 17-06-2020 00:00:00 18.10486 C 36.5347 %
991 18-06-2020 00:00:00 19.72569 C 31.4722 %
992 19-06-2020 00:00:00 17.11181 C 35.9028 %
993 20-06-2020 00:00:00 17.44514 C 34.6319 %
994 21-06-2020 00:00:00 20.65208 C 31.4097 %
995 22-06-2020 00:00:00 20.03958 C 29.0347 %
996 23-06-2020 00:00:00 21.27708 C 29.8472 %
997 24-06-2020 00:00:00 22.32569 C 27.2222 %
998 25-06-2020 00:00:00 22.52222 C 26.3264 %
999 26-06-2020 00:00:00 23.33542 C 29.4306 %
1000 27-06-2020 00:00:00 23.59236 C 27.9236 %
Sensor: Nr:Datum:Temp:Feuchte:
Aussen-T/F 1001 28-06-2020 00:00:00 20.15625 C 29.1181 %
1002 29-06-2020 00:00:00 18.91667 C 29.3750 %
1003 30-06-2020 00:00:00 17.63611 C 29.2500 %
1004 01-07-2020 00:00:00 22.10764 C 27.2500 %
1005 02-07-2020 00:00:00 19.35903 C 32.8611 %
1006 03-07-2020 00:00:00 18.4375 C 30.9306 %
1007 04-07-2020 00:00:00 19.56528 C 27.8056 %
1008 05-07-2020 00:00:00 23.42222 C 26.5069 %
1009 06-07-2020 00:00:00 16.97292 C 27.8264 %
1010 07-07-2020 00:00:00 16.98611 C 30.0903 %
1011 08-07-2020 00:00:00 15.99444 C 36.0486 %
1012 09-07-2020 00:00:00 22.42361 C 30.2153 %
1013 10-07-2020 00:00:00 18.77222 C 32.6042 %
1014 11-07-2020 00:00:00 17.44167 C 29.9514 %
1015 12-07-2020 00:00:00 18.36944 C 29.9792 %
1016 13-07-2020 00:00:00 20.63333 C 27.9931 %
1017 14-07-2020 00:00:00 19.57917 C 28.7153 %
1018 15-07-2020 00:00:00 18.56806 C 29.6389 %
1019 16-07-2020 00:00:00 16.03611 C 38.0625 %
1020 17-07-2020 00:00:00 19.64375 C 32.7222 %
1021 18-07-2020 00:00:00 20.24406 C 31.3636 %
1022 19-07-2020 00:00:00 23.3625 C 27.6597 %
1023 20-07-2020 00:00:00 20.29931 C 28.6111 %
1024 21-07-2020 00:00:00 18.99375 C 27.2083 %
1025 22-07-2020 00:00:00 18.52222 C 28.8542 %
Sensor: Nr:Datum:Temp:Feuchte:
Aussen-T/F 1026 23-07-2020 00:00:00 20.38472 C 26.9306 %
1027 24-07-2020 00:00:00 21.93889 C 24.3333 %
1028 25-07-2020 00:00:00 21.73681 C 27.9583 %
1029 26-07-2020 00:00:00 21.61944 C 29.2361 %
1030 27-07-2020 00:00:00 22.74306 C 28.1181 %
1031 28-07-2020 00:00:00 23.63681 C 22.2569 %
1032 29-07-2020 00:00:00 20.21875 C 27.2083 %
1033 30-07-2020 00:00:00 21.74306 C 27.3958 %
1034 31-07-2020 00:00:00 25.38125 C 25.3056 %
1035 01-08-2020 00:00:00 22.83611 C 31.0000 %
1036 02-08-2020 00:00:00 22.3625 C 29.5694 %
1037 03-08-2020 00:00:00 18.8125 C 30.2222 %
1038 04-08-2020 00:00:00 20.01944 C 27.5139 %
1039 05-08-2020 00:00:00 20.54444 C 28.1875 %
1040 06-08-2020 00:00:00 22.82014 C 26.7500 %
1041 07-08-2020 00:00:00 24.83819 C 26.9306 %
1042 08-08-2020 00:00:00 27.23056 C 25.4722 %
1043 09-08-2020 00:00:00 24.89722 C 26.9583 %
1044 10-08-2020 00:00:00 26.58125 C 27.6319 %
1045 11-08-2020 00:00:00 26.57986 C 27.6944 %
1046 12-08-2020 00:00:00 24.53194 C 33.3958 %
1047 13-08-2020 00:00:00 24.15556 C 32.0694 %
1048 14-08-2020 00:00:00 24.22639 C 29.9306 %
1049 15-08-2020 00:00:00 22.52847 C 33.3611 %
1050 16-08-2020 00:00:00 23.01608 C 33.3287 %
Sensor: Nr:Datum:Temp:Feuchte:
Aussen-T/F 1051 17-08-2020 00:00:00 22.00069 C 32.0694 %
1052 18-08-2020 00:00:00 19.64722 C 33.6319 %
1053 19-08-2020 00:00:00 19.99514 C 33.0764 %
1054 20-08-2020 00:00:00 24.92847 C 30.1597 %
1055 21-08-2020 00:00:00 25.70417 C 25.9653 %
1056 22-08-2020 00:00:00 23.12222 C 26.7500 %
1057 23-08-2020 00:00:00 19.60972 C 28.1042 %
1058 24-08-2020 00:00:00 18.62986 C 28.9931 %
1059 25-08-2020 00:00:00 19.32986 C 29.6458 %
1060 26-08-2020 00:00:00 21.03819 C 23.8750 %
1061 27-08-2020 00:00:00 19.17014 C 29.1458 %
1062 28-08-2020 00:00:00 18.33125 C 32.6875 %
1063 29-08-2020 00:00:00 16.67083 C 33.7222 %
1064 30-08-2020 00:00:00 16.39375 C 34.2917 %
1065 31-08-2020 00:00:00 15.79722 C 38.0278 %
1066 01-09-2020 00:00:00 15.44097 C 36.7014 %
1067 02-09-2020 00:00:00 16.35833 C 34.1458 %
1068 03-09-2020 00:00:00 14.34375 C 38.0417 %
1069 04-09-2020 00:00:00 20.75069 C 32.0486 %
1070 05-09-2020 00:00:00 17.11528 C 33.1597 %
1071 06-09-2020 00:00:00 13.4375 C 34.3194 %
1072 07-09-2020 00:00:00 14.46806 C 34.1528 %
1073 08-09-2020 00:00:00 16.83333 C 32.9444 %
1074 09-09-2020 00:00:00 18.66042 C 33.7431 %
1075 10-09-2020 00:00:00 18.46458 C 30.3681 %
Sensor: Nr:Datum:Temp:Feuchte:
Aussen-T/F 1076 11-09-2020 00:00:00 15.48958 C 33.4097 %
1077 12-09-2020 00:00:00 17.60694 C 32.8194 %
1078 13-09-2020 00:00:00 17.58264 C 33.1181 %
1079 14-09-2020 00:00:00 18.825 C 32.5972 %
1080 15-09-2020 00:00:00 20.67778 C 31.9514 %
1081 16-09-2020 00:00:00 20.99792 C 30.5764 %
1082 17-09-2020 00:00:00 18.14167 C 27.7708 %
1083 18-09-2020 00:00:00 16.05694 C 28.6458 %
1084 19-09-2020 00:00:00 15.83333 C 28.6389 %
1085 20-09-2020 00:00:00 14.71528 C 31.0556 %
1086 21-09-2020 00:00:00 14.91458 C 32.5000 %
1087 22-09-2020 00:00:00 16.11667 C 32.2500 %
1088 23-09-2020 00:00:00 17.92083 C 28.8403 %
1089 24-09-2020 00:00:00 16.25417 C 33.3333 %
1090 25-09-2020 00:00:00 12.31111 C 36.3958 %
1091 26-09-2020 00:00:00 10.10347 C 40.6528 %
1092 27-09-2020 00:00:00 10.94444 C 41.1250 %
1093 28-09-2020 00:00:00 11.69167 C 38.6736 %
1094 29-09-2020 00:00:00 11.77431 C 42.8125 %
1095 30-09-2020 00:00:00 14.11111 C 38.7153 %
1096 01-10-2020 00:00:00 12.29028 C 40.9444 %
Sensor: Nr:Datum:Temp:Feuchte:
G-T/H 1 02-10-2017 00:00:00 14.96167 C 75.8333 %
2 03-10-2017 00:00:00 15.05583 C 75.3167 %
3 04-10-2017 00:00:00 14.14417 C 72.4833 %
4 05-10-2017 00:00:00 14.39917 C 74.4417 %
5 06-10-2017 00:00:00 13.515 C 72.0000 %
6 07-10-2017 00:00:00 13.36583 C 74.1000 %
7 08-10-2017 00:00:00 13.59833 C 76.1167 %
8 09-10-2017 00:00:00 13.71417 C 76.4750 %
9 10-10-2017 00:00:00 14.10667 C 77.2250 %
10 11-10-2017 00:00:00 14.48833 C 77.7500 %
11 12-10-2017 00:00:00 14.45833 C 77.2083 %
12 13-10-2017 00:00:00 14.39417 C 77.1167 %
13 14-10-2017 00:00:00 14.55667 C 77.2000 %
14 15-10-2017 00:00:00 14.22167 C 77.1917 %
15 16-10-2017 00:00:00 14.72417 C 80.6250 %
16 17-10-2017 00:00:00 14.50583 C 80.0333 %
17 18-10-2017 00:00:00 14.23 C 79.1833 %
18 19-10-2017 00:00:00 13.8025 C 76.9750 %
19 20-10-2017 00:00:00 14.11261 C 77.8235 %
20 21-10-2017 00:00:00 13.58417 C 75.6250 %
21 22-10-2017 00:00:00 13.64333 C 74.5083 %
22 23-10-2017 00:00:00 13.15167 C 73.8667 %
23 24-10-2017 00:00:00 13.7125 C 77.3167 %
24 25-10-2017 00:00:00 14.60167 C 78.0000 %
25 26-10-2017 00:00:00 14.7325 C 78.0000 %
Sensor: Nr:Datum:Temp:Feuchte:
G-T/H 26 27-10-2017 00:00:00 14.395 C 76.2583 %
27 28-10-2017 00:00:00 13.38917 C 71.6000 %
28 29-10-2017 00:00:00 13.2736 C 70.4000 %
29 30-10-2017 00:00:00 11.94167 C 67.1167 %
30 31-10-2017 00:00:00 11.315 C 67.7083 %
31 01-11-2017 00:00:00 11.75833 C 71.3750 %
32 02-11-2017 00:00:00 11.43667 C 71.0500 %
33 03-11-2017 00:00:00 11.36333 C 71.6167 %
34 04-11-2017 00:00:00 11.05083 C 71.6417 %
35 05-11-2017 00:00:00 11.7925 C 73.8417 %
36 06-11-2017 00:00:00 10.80417 C 68.9083 %
37 07-11-2017 00:00:00 10.16167 C 68.1500 %
38 08-11-2017 00:00:00 10.51583 C 72.8417 %
39 09-11-2017 00:00:00 10.89833 C 74.4833 %
40 10-11-2017 00:00:00 10.70833 C 72.4333 %
41 11-11-2017 00:00:00 10.25917 C 71.3500 %
42 12-11-2017 00:00:00 9.99417 C 71.9333 %
43 13-11-2017 00:00:00 9.82667 C 72.4833 %
44 14-11-2017 00:00:00 9.44833 C 71.5833 %
45 15-11-2017 00:00:00 9.78417 C 73.4833 %
46 16-11-2017 00:00:00 9.8675 C 71.0000 %
47 17-11-2017 00:00:00 10.21917 C 72.6917 %
48 18-11-2017 00:00:00 8.93333 C 68.2833 %
49 19-11-2017 00:00:00 9.44917 C 70.7667 %
50 20-11-2017 00:00:00 9.4175 C 70.1500 %
Sensor: Nr:Datum:Temp:Feuchte:
G-T/H 51 21-11-2017 00:00:00 10.07833 C 73.5833 %
52 22-11-2017 00:00:00 10.72 C 73.9917 %
53 23-11-2017 00:00:00 10.0175 C 71.3000 %
54 24-11-2017 00:00:00 11.32583 C 75.4750 %
55 25-11-2017 00:00:00 10.815 C 70.9083 %
56 26-11-2017 00:00:00 9.25 C 65.7167 %
57 27-11-2017 00:00:00 9.09917 C 68.4083 %
58 28-11-2017 00:00:00 9.38167 C 70.0917 %
59 29-11-2017 00:00:00 8.70583 C 68.4167 %
60 30-11-2017 00:00:00 8.38083 C 67.8167 %
61 01-12-2017 00:00:00 7.8275 C 66.9750 %
62 02-12-2017 00:00:00 6.8025 C 64.3667 %
63 03-12-2017 00:00:00 7.2 C 63.1583 %
64 04-12-2017 00:00:00 7.5275 C 69.7417 %
65 05-12-2017 00:00:00 8.31833 C 73.2750 %
66 06-12-2017 00:00:00 8.98333 C 73.6833 %
67 07-12-2017 00:00:00 8.76667 C 67.2083 %
68 08-12-2017 00:00:00 8.66917 C 66.2417 %
69 09-12-2017 00:00:00 7.4925 C 59.9167 %
70 10-12-2017 00:00:00 7.18333 C 64.1750 %
71 11-12-2017 00:00:00 7.94417 C 72.5667 %
72 12-12-2017 00:00:00 8.19083 C 68.4083 %
73 13-12-2017 00:00:00 7.93917 C 67.1333 %
74 14-12-2017 00:00:00 7.92667 C 69.1000 %
75 15-12-2017 00:00:00 7.94167 C 70.5000 %
Sensor: Nr:Datum:Temp:Feuchte:
G-T/H 76 16-12-2017 00:00:00 7.925 C 71.0833 %
77 17-12-2017 00:00:00 7.8375 C 69.7667 %
78 18-12-2017 00:00:00 7.10333 C 67.6500 %
79 19-12-2017 00:00:00 7.60417 C 70.4667 %
80 20-12-2017 00:00:00 8.29083 C 73.0000 %
81 21-12-2017 00:00:00 9.43333 C 74.8833 %
82 22-12-2017 00:00:00 10.32333 C 75.8833 %
83 23-12-2017 00:00:00 10.45667 C 76.0750 %
84 24-12-2017 00:00:00 10.61417 C 75.9000 %
85 25-12-2017 00:00:00 10.30833 C 71.7667 %
86 26-12-2017 00:00:00 9.0975 C 68.1083 %
87 27-12-2017 00:00:00 8.905 C 71.4083 %
88 28-12-2017 00:00:00 8.96167 C 70.6417 %
89 29-12-2017 00:00:00 14.36852 C 70.8611 %
90 30-12-2017 00:00:00 8.1925 C 73.4750 %
91 31-12-2017 00:00:00 10.73 C 74.9167 %
92 01-01-2018 00:00:00 10.91333 C 70.9167 %
93 02-01-2018 00:00:00 9.93833 C 71.7000 %
94 03-01-2018 00:00:00 9.98417 C 71.9333 %
95 04-01-2018 00:00:00 9.81167 C 73.7667 %
96 05-01-2018 00:00:00 10.06833 C 72.5333 %
97 06-01-2018 00:00:00 9.95417 C 74.1667 %
98 07-01-2018 00:00:00 9.5275 C 72.0083 %
99 08-01-2018 00:00:00 8.9575 C 69.3000 %
100 09-01-2018 00:00:00 8.81583 C 71.4583 %
Sensor: Nr:Datum:Temp:Feuchte:
G-T/H 101 10-01-2018 00:00:00 9.03917 C 73.1917 %
102 11-01-2018 00:00:00 9.4725 C 74.4333 %
103 12-01-2018 00:00:00 9.7375 C 75.0000 %
104 13-01-2018 00:00:00 9.48 C 71.6333 %
105 14-01-2018 00:00:00 8.7325 C 64.1833 %
106 15-01-2018 00:00:00 8.00083 C 65.2500 %
107 16-01-2018 00:00:00 8.6025 C 70.4000 %
108 17-01-2018 00:00:00 8.19 C 66.7833 %
109 18-01-2018 00:00:00 8.2875 C 68.1000 %
110 19-01-2018 00:00:00 8.47333 C 67.2417 %
111 20-01-2018 00:00:00 7.515 C 67.7833 %
112 21-01-2018 00:00:00 7.5275 C 70.9250 %
113 22-01-2018 00:00:00 7.75 C 71.9417 %
114 23-01-2018 00:00:00 8.69492 C 73.4661 %
115 24-01-2018 00:00:00 9.75556 C 74.8120 %
116 25-01-2018 00:00:00 10.6075 C 75.1917 %
117 26-01-2018 00:00:00 10.3125 C 74.1917 %
118 27-01-2018 00:00:00 9.54 C 72.2583 %
119 28-01-2018 00:00:00 9.4625 C 73.1917 %
120 29-01-2018 00:00:00 10.13833 C 74.2667 %
121 30-01-2018 00:00:00 9.76167 C 71.3917 %
122 31-01-2018 00:00:00 9.43 C 72.7083 %
123 01-02-2018 00:00:00 8.55 C 67.8083 %
124 02-02-2018 00:00:00 7.83917 C 68.3833 %
125 03-02-2018 00:00:00 7.98992 C 68.2521 %
Sensor: Nr:Datum:Temp:Feuchte:
G-T/H 126 04-02-2018 00:00:00 7.4 C 63.4333 %
127 05-02-2018 00:00:00 6.47 C 60.2917 %
128 06-02-2018 00:00:00 6.30833 C 61.8333 %
129 07-02-2018 00:00:00 6.2075 C 63.0250 %
130 08-02-2018 00:00:00 5.975 C 61.9833 %
131 09-02-2018 00:00:00 5.43333 C 63.6917 %
132 10-02-2018 00:00:00 6.105 C 66.3083 %
133 11-02-2018 00:00:00 6.99167 C 66.3833 %
134 12-02-2018 00:00:00 7.07833 C 64.5250 %
135 13-02-2018 00:00:00 6.335 C 60.4167 %
136 14-02-2018 00:00:00 5.87917 C 61.6500 %
137 15-02-2018 00:00:00 5.88583 C 66.8833 %
138 16-02-2018 00:00:00 6.29667 C 70.6750 %
139 17-02-2018 00:00:00 6.07083 C 67.1000 %
140 18-02-2018 00:00:00 5.89667 C 66.5500 %
141 19-02-2018 00:00:00 5.89083 C 68.3167 %
142 20-02-2018 00:00:00 6.01 C 66.1333 %
143 21-02-2018 00:00:00 5.89083 C 63.8500 %
144 22-02-2018 00:00:00 5.73333 C 61.2667 %
145 23-02-2018 00:00:00 5.48583 C 60.5583 %
146 24-02-2018 00:00:00 5.12583 C 59.3667 %
147 25-02-2018 00:00:00 4.93667 C 56.8667 %
148 26-02-2018 00:00:00 4.61167 C 55.2417 %
149 27-02-2018 00:00:00 4.5275 C 52.9667 %
150 28-02-2018 00:00:00 4.28667 C 51.9750 %
Sensor: Nr:Datum:Temp:Feuchte:
G-T/H 151 01-03-2018 00:00:00 4.305 C 53.0333 %
152 02-03-2018 00:00:00 4.77417 C 54.7917 %
153 03-03-2018 00:00:00 5.21917 C 60.2833 %
154 04-03-2018 00:00:00 6.01083 C 65.3000 %
155 05-03-2018 00:00:00 7.26 C 67.7083 %
156 06-03-2018 00:00:00 7.275 C 64.2583 %
157 07-03-2018 00:00:00 8.05833 C 67.2083 %
158 08-03-2018 00:00:00 8.30667 C 69.2500 %
159 09-03-2018 00:00:00 8.13 C 70.0750 %
160 10-03-2018 00:00:00 8.92167 C 72.5500 %
161 11-03-2018 00:00:00 10.33 C 74.6417 %
162 12-03-2018 00:00:00 10.33667 C 74.2417 %
163 13-03-2018 00:00:00 10.06083 C 73.3417 %
164 14-03-2018 00:00:00 9.31667 C 70.8667 %
165 15-03-2018 00:00:00 8.67083 C 68.2833 %
166 16-03-2018 00:00:00 9.4175 C 72.0250 %
167 17-03-2018 00:00:00 8.13333 C 61.2417 %
168 18-03-2018 00:00:00 6.64 C 57.5417 %
169 19-03-2018 00:00:00 6.395 C 58.4417 %
170 20-03-2018 00:00:00 6.19167 C 59.8333 %
171 21-03-2018 00:00:00 6.24 C 61.0167 %
172 22-03-2018 00:00:00 6.45333 C 62.8500 %
173 23-03-2018 00:00:00 7.555 C 68.1250 %
174 24-03-2018 00:00:00 7.95833 C 66.2333 %
175 25-03-2018 00:00:00 7.42522 C 63.5130 %
Sensor: Nr:Datum:Temp:Feuchte:
G-T/H 176 26-03-2018 00:00:00 8.47583 C 65.8417 %
177 27-03-2018 00:00:00 8.32583 C 65.0083 %
178 28-03-2018 00:00:00 9.05 C 70.1833 %
179 29-03-2018 00:00:00 9.1875 C 67.9333 %
180 30-03-2018 00:00:00 8.73083 C 65.5333 %
181 31-03-2018 00:00:00 9.3075 C 68.4417 %
182 01-04-2018 00:00:00 9.65917 C 69.4500 %
183 02-04-2018 00:00:00 9.52333 C 68.1000 %
184 03-04-2018 00:00:00 10.725 C 69.7000 %
185 04-04-2018 00:00:00 11.48583 C 70.6333 %
186 05-04-2018 00:00:00 10.94833 C 68.8000 %
187 06-04-2018 00:00:00 9.26167 C 62.4833 %
188 07-04-2018 00:00:00 10.58667 C 62.3917 %
189 08-04-2018 00:00:00 13.47 C 59.0417 %
190 09-04-2018 00:00:00 14.53917 C 57.1667 %
191 10-04-2018 00:00:00 13.77667 C 63.5000 %
192 11-04-2018 00:00:00 13.00917 C 66.6083 %
193 12-04-2018 00:00:00 12.9425 C 66.9917 %
194 13-04-2018 00:00:00 12.73333 C 67.2917 %
195 14-04-2018 00:00:00 13.63417 C 61.7667 %
196 15-04-2018 00:00:00 13.92167 C 65.0333 %
197 16-04-2018 00:00:00 14.52167 C 62.0000 %
198 17-04-2018 00:00:00 14.20333 C 61.1500 %
199 18-04-2018 00:00:00 14.54417 C 62.2333 %
200 19-04-2018 00:00:00 14.79583 C 62.5583 %
Sensor: Nr:Datum:Temp:Feuchte:
G-T/H 201 20-04-2018 00:00:00 15.73333 C 61.3833 %
202 21-04-2018 00:00:00 15.80333 C 63.5083 %
203 22-04-2018 00:00:00 15.78333 C 66.2917 %
204 23-04-2018 00:00:00 17.01667 C 62.7833 %
205 24-04-2018 00:00:00 16.23833 C 56.5917 %
206 25-04-2018 00:00:00 15.21833 C 62.0333 %
207 26-04-2018 00:00:00 13.76 C 51.5583 %
208 27-04-2018 00:00:00 13.61917 C 56.6250 %
209 28-04-2018 00:00:00 13.9325 C 61.2917 %
210 29-04-2018 00:00:00 14.02083 C 64.6000 %
211 30-04-2018 00:00:00 14.6725 C 64.2917 %
212 01-05-2018 00:00:00 13.36417 C 58.0083 %
213 02-05-2018 00:00:00 13.24833 C 56.1500 %
214 03-05-2018 00:00:00 13.77 C 57.8750 %
215 04-05-2018 00:00:00 13.83917 C 58.3750 %
216 05-05-2018 00:00:00 15.43167 C 55.9333 %
217 06-05-2018 00:00:00 15.6825 C 57.6750 %
218 07-05-2018 00:00:00 17.61 C 52.7917 %
219 08-05-2018 00:00:00 18.74917 C 49.1583 %
220 09-05-2018 00:00:00 17.61417 C 55.5167 %
221 10-05-2018 00:00:00 16.74583 C 61.1667 %
222 11-05-2018 00:00:00 15.555 C 63.3500 %
223 12-05-2018 00:00:00 15.79083 C 63.9333 %
224 13-05-2018 00:00:00 16.08833 C 66.4583 %
225 14-05-2018 00:00:00 15.57667 C 68.2083 %
Sensor: Nr:Datum:Temp:Feuchte:
G-T/H 226 15-05-2018 00:00:00 16.8825 C 59.6083 %
227 16-05-2018 00:00:00 16.71333 C 63.0083 %
228 17-05-2018 00:00:00 15.91 C 63.1083 %
229 18-05-2018 00:00:00 15.1975 C 60.7083 %
230 19-05-2018 00:00:00 15.0375 C 63.1750 %
231 20-05-2018 00:00:00 15.13333 C 64.4667 %
232 21-05-2018 00:00:00 16.85667 C 64.3167 %
233 22-05-2018 00:00:00 17.2475 C 65.6333 %
234 23-05-2018 00:00:00 16.85417 C 68.0583 %
235 24-05-2018 00:00:00 16.56417 C 69.4500 %
236 25-05-2018 00:00:00 17.3275 C 69.1583 %
237 26-05-2018 00:00:00 18.92583 C 67.1167 %
238 27-05-2018 00:00:00 18.99167 C 68.2750 %
239 28-05-2018 00:00:00 18.94167 C 69.8667 %
240 29-05-2018 00:00:00 19.4375 C 69.9667 %
241 30-05-2018 00:00:00 19.22417 C 70.2750 %
242 31-05-2018 00:00:00 19.74667 C 69.8500 %
243 01-06-2018 00:00:00 19.70417 C 70.5583 %
244 02-06-2018 00:00:00 19.1175 C 70.5000 %
245 03-06-2018 00:00:00 19.86917 C 66.6000 %
246 04-06-2018 00:00:00 21.16 C 62.4500 %
247 05-06-2018 00:00:00 21.1225 C 62.2500 %
248 06-06-2018 00:00:00 20.28167 C 64.7000 %
249 07-06-2018 00:00:00 20.33167 C 66.7250 %
250 08-06-2018 00:00:00 20.14167 C 68.3250 %
Sensor: Nr:Datum:Temp:Feuchte:
G-T/H 251 09-06-2018 00:00:00 21.14508 C 68.4918 %
252 10-06-2018 00:00:00 20.73583 C 69.4833 %
253 11-06-2018 00:00:00 20.2075 C 70.2833 %
254 12-06-2018 00:00:00 18.93333 C 70.9417 %
255 13-06-2018 00:00:00 17.78333 C 67.8500 %
256 14-06-2018 00:00:00 17.08167 C 65.6167 %
257 15-06-2018 00:00:00 17.87667 C 69.7333 %
258 16-06-2018 00:00:00 19.23167 C 66.0250 %
259 17-06-2018 00:00:00 19.20917 C 66.1250 %
260 18-06-2018 00:00:00 18.5725 C 66.5167 %
261 19-06-2018 00:00:00 19.3025 C 68.1667 %
262 20-06-2018 00:00:00 21.34417 C 62.6417 %
263 21-06-2018 00:00:00 20.40083 C 61.7667 %
264 22-06-2018 00:00:00 18.12583 C 59.1417 %
265 23-06-2018 00:00:00 16.91917 C 60.9000 %
266 24-06-2018 00:00:00 17.08583 C 64.6833 %
267 25-06-2018 00:00:00 17.72833 C 66.0250 %
268 26-06-2018 00:00:00 18.48917 C 62.1583 %
269 27-06-2018 00:00:00 19.815 C 57.9000 %
270 28-06-2018 00:00:00 20.73667 C 53.0667 %
271 29-06-2018 00:00:00 22.01 C 53.8250 %
272 30-06-2018 00:00:00 22.90917 C 48.2667 %
273 01-07-2018 00:00:00 21.50833 C 49.2500 %
274 02-07-2018 00:00:00 21.34083 C 43.1083 %
275 03-07-2018 00:00:00 20.70167 C 49.9250 %
Sensor: Nr:Datum:Temp:Feuchte:
G-T/H 276 04-07-2018 00:00:00 21.1075 C 60.3667 %
277 05-07-2018 00:00:00 21.2225 C 66.7750 %
278 06-07-2018 00:00:00 20.8225 C 63.6917 %
279 07-07-2018 00:00:00 20.45126 C 62.5294 %
280 08-07-2018 00:00:00 20.11833 C 59.9000 %
281 09-07-2018 00:00:00 20.74917 C 55.1417 %
282 10-07-2018 00:00:00 20.3825 C 58.3167 %
283 11-07-2018 00:00:00 18.89583 C 62.6083 %
284 12-07-2018 00:00:00 18.92167 C 65.2500 %
285 13-07-2018 00:00:00 20.39417 C 62.1167 %
286 14-07-2018 00:00:00 20.52583 C 63.2833 %
287 15-07-2018 00:00:00 20.67417 C 63.4333 %
288 16-07-2018 00:00:00 20.8475 C 63.2583 %
289 17-07-2018 00:00:00 20.97167 C 63.0667 %
290 18-07-2018 00:00:00 20.9325 C 59.6167 %
291 19-07-2018 00:00:00 21.11667 C 54.9500 %
292 20-07-2018 00:00:00 21.86917 C 52.9083 %
293 21-07-2018 00:00:00 21.57333 C 58.8500 %
294 22-07-2018 00:00:00 20.75417 C 62.4750 %
295 23-07-2018 00:00:00 22.1575 C 57.9833 %
296 24-07-2018 00:00:00 23.88 C 52.9250 %
297 25-07-2018 00:00:00 24.83333 C 49.4917 %
298 26-07-2018 00:00:00 25.99417 C 48.0750 %
299 27-07-2018 00:00:00 25.445 C 46.9000 %
300 28-07-2018 00:00:00 24.04917 C 55.1667 %
Sensor: Nr:Datum:Temp:Feuchte:
G-T/H 301 29-07-2018 00:00:00 22.61667 C 58.5167 %
302 30-07-2018 00:00:00 24.22583 C 54.8000 %
303 31-07-2018 00:00:00 25.41833 C 51.8250 %
304 01-08-2018 00:00:00 23.80667 C 61.0833 %
305 02-08-2018 00:00:00 23.36417 C 62.3583 %
306 03-08-2018 00:00:00 24.53167 C 58.5333 %
307 04-08-2018 00:00:00 25.9125 C 50.5583 %
308 05-08-2018 00:00:00 24.74417 C 53.5917 %
309 06-08-2018 00:00:00 24.53333 C 49.9583 %
310 07-08-2018 00:00:00 24.12667 C 54.2583 %
311 08-08-2018 00:00:00 24.27667 C 57.4917 %
312 09-08-2018 00:00:00 23.23333 C 60.5250 %
313 10-08-2018 00:00:00 21.49417 C 54.0000 %
314 11-08-2018 00:00:00 20.81667 C 56.0583 %
315 12-08-2018 00:00:00 20.13 C 56.1333 %
316 13-08-2018 00:00:00 20.07083 C 60.5667 %
317 14-08-2018 00:00:00 19.80333 C 63.5000 %
318 15-08-2018 00:00:00 19.82917 C 65.0667 %
319 16-08-2018 00:00:00 19.9875 C 64.3500 %
320 17-08-2018 00:00:00 20.46083 C 64.9583 %
321 18-08-2018 00:00:00 19.96167 C 62.2667 %
322 19-08-2018 00:00:00 19.83667 C 62.1667 %
323 20-08-2018 00:00:00 21.2525 C 62.2667 %
324 21-08-2018 00:00:00 21.17667 C 63.9333 %
325 22-08-2018 00:00:00 21.1725 C 64.1750 %
Sensor: Nr:Datum:Temp:Feuchte:
G-T/H 326 23-08-2018 00:00:00 21.47667 C 64.7000 %
327 24-08-2018 00:00:00 21.1275 C 62.0417 %
328 25-08-2018 00:00:00 19.5075 C 59.1667 %
329 26-08-2018 00:00:00 18.22417 C 55.7083 %
330 27-08-2018 00:00:00 18.48167 C 60.4500 %
331 28-08-2018 00:00:00 18.53833 C 61.2250 %
332 29-08-2018 00:00:00 18.56917 C 62.2417 %
333 30-08-2018 00:00:00 18.82333 C 63.4833 %
334 31-08-2018 00:00:00 18.3025 C 59.8750 %
335 01-09-2018 00:00:00 17.4825 C 59.8917 %
336 02-09-2018 00:00:00 16.9325 C 62.1583 %
337 03-09-2018 00:00:00 18.13333 C 66.0000 %
338 04-09-2018 00:00:00 19.61083 C 66.7083 %
339 05-09-2018 00:00:00 19.59583 C 67.1750 %
340 06-09-2018 00:00:00 19.38917 C 68.3667 %
341 07-09-2018 00:00:00 18.6775 C 67.7917 %
342 08-09-2018 00:00:00 17.10833 C 59.8333 %
343 09-09-2018 00:00:00 17.1975 C 64.7667 %
344 10-09-2018 00:00:00 18.47583 C 60.5250 %
345 11-09-2018 00:00:00 19.45417 C 58.4917 %
346 12-09-2018 00:00:00 18.84083 C 60.8833 %
347 13-09-2018 00:00:00 18.58083 C 66.2167 %
348 14-09-2018 00:00:00 18.04833 C 65.0000 %
349 15-09-2018 00:00:00 17.66667 C 59.8833 %
350 16-09-2018 00:00:00 16.83 C 61.8000 %
Sensor: Nr:Datum:Temp:Feuchte:
G-T/H 351 17-09-2018 00:00:00 17.8475 C 57.0583 %
352 18-09-2018 00:00:00 19.79417 C 56.2333 %
353 19-09-2018 00:00:00 21.03083 C 58.0583 %
354 20-09-2018 00:00:00 20.82 C 55.5500 %
355 21-09-2018 00:00:00 19.29417 C 59.4833 %
356 22-09-2018 00:00:00 17.24917 C 60.5250 %
357 23-09-2018 00:00:00 16.50167 C 65.7500 %
358 24-09-2018 00:00:00 15.14583 C 63.3167 %
359 25-09-2018 00:00:00 13.7275 C 62.7333 %
360 26-09-2018 00:00:00 13.02583 C 63.2917 %
361 27-09-2018 00:00:00 13.0625 C 65.7333 %
362 28-09-2018 00:00:00 13.53583 C 69.5083 %
363 29-09-2018 00:00:00 12.62 C 64.5750 %
364 30-09-2018 00:00:00 11.83417 C 63.4000 %
365 01-10-2018 00:00:00 12.43167 C 68.0167 %
366 02-10-2018 00:00:00 12.47917 C 67.0333 %
367 03-10-2018 00:00:00 13.125 C 70.8750 %
368 04-10-2018 00:00:00 12.85083 C 66.8417 %
369 05-10-2018 00:00:00 13.175 C 68.1250 %
370 06-10-2018 00:00:00 12.79833 C 73.9167 %
371 07-10-2018 00:00:00 14.22167 C 74.0833 %
372 08-10-2018 00:00:00 13.52083 C 69.3917 %
373 09-10-2018 00:00:00 13.39083 C 72.8583 %
374 10-10-2018 00:00:00 13.75333 C 75.3000 %
375 11-10-2018 00:00:00 13.985 C 75.0167 %
Sensor: Nr:Datum:Temp:Feuchte:
G-T/H 376 12-10-2018 00:00:00 14.54333 C 75.8417 %
377 13-10-2018 00:00:00 15.69 C 72.6083 %
378 14-10-2018 00:00:00 15.11667 C 72.1917 %
379 15-10-2018 00:00:00 14.6725 C 73.1583 %
380 16-10-2018 00:00:00 14.08333 C 72.8917 %
381 17-10-2018 00:00:00 13.86667 C 73.4083 %
382 18-10-2018 00:00:00 14.26083 C 74.7500 %
383 19-10-2018 00:00:00 14.28333 C 73.2417 %
384 20-10-2018 00:00:00 14.01833 C 72.8250 %
385 21-10-2018 00:00:00 12.52583 C 67.5917 %
386 22-10-2018 00:00:00 11.7575 C 67.8750 %
387 23-10-2018 00:00:00 11.71417 C 69.2333 %
388 24-10-2018 00:00:00 13.1175 C 73.3417 %
389 25-10-2018 00:00:00 13.88083 C 73.4083 %
390 26-10-2018 00:00:00 13.5375 C 68.0250 %
391 27-10-2018 00:00:00 12.19667 C 65.8417 %
392 28-10-2018 00:00:00 10.9176 C 62.4880 %
393 29-10-2018 00:00:00 10.95583 C 65.6250 %
394 30-10-2018 00:00:00 10.86333 C 67.5167 %
395 31-10-2018 00:00:00 10.8775 C 68.4750 %
396 01-11-2018 00:00:00 10.72083 C 69.2750 %
397 02-11-2018 00:00:00 11.285 C 72.4667 %
398 03-11-2018 00:00:00 10.44 C 67.0750 %
399 04-11-2018 00:00:00 10.265 C 68.6167 %
400 05-11-2018 00:00:00 11.60167 C 72.5750 %
Sensor: Nr:Datum:Temp:Feuchte:
G-T/H 401 06-11-2018 00:00:00 11.5475 C 72.0167 %
402 07-11-2018 00:00:00 11.24083 C 72.4083 %
403 08-11-2018 00:00:00 11.87833 C 74.0333 %
404 09-11-2018 00:00:00 11.62333 C 73.2750 %
405 10-11-2018 00:00:00 12.22833 C 74.7000 %
406 11-11-2018 00:00:00 12.73917 C 75.7833 %
407 12-11-2018 00:00:00 13.255 C 75.6083 %
408 13-11-2018 00:00:00 13.2975 C 75.3417 %
409 14-11-2018 00:00:00 11.54667 C 70.8583 %
410 15-11-2018 00:00:00 11.19417 C 71.8333 %
411 16-11-2018 00:00:00 10.76833 C 68.8833 %
412 17-11-2018 00:00:00 9.25167 C 68.0000 %
413 18-11-2018 00:00:00 8.3775 C 68.4167 %
414 19-11-2018 00:00:00 8.15 C 69.1333 %
415 20-11-2018 00:00:00 8.56667 C 68.8833 %
416 21-11-2018 00:00:00 8.45333 C 69.6833 %
417 22-11-2018 00:00:00 8.65333 C 70.9083 %
418 23-11-2018 00:00:00 7.69667 C 69.4917 %
419 24-11-2018 00:00:00 8.0325 C 72.4750 %
420 25-11-2018 00:00:00 9.05667 C 73.9333 %
421 26-11-2018 00:00:00 9.6625 C 74.3250 %
422 27-11-2018 00:00:00 9.61333 C 72.8000 %
423 28-11-2018 00:00:00 8.91917 C 71.9583 %
424 29-11-2018 00:00:00 9.26083 C 73.8000 %
425 30-11-2018 00:00:00 9.63 C 74.7833 %
Sensor: Nr:Datum:Temp:Feuchte:
G-T/H 426 01-12-2018 00:00:00 9.92417 C 74.6250 %
427 02-12-2018 00:00:00 10.7275 C 75.6167 %
428 03-12-2018 00:00:00 11.87333 C 76.5417 %
429 04-12-2018 00:00:00 11.3275 C 72.0250 %
430 05-12-2018 00:00:00 9.61933 C 69.0504 %
431 06-12-2018 00:00:00 10.40583 C 72.9583 %
432 07-12-2018 00:00:00 11.82917 C 74.0583 %
433 08-12-2018 00:00:00 11.04667 C 70.6667 %
434 09-12-2018 00:00:00 10.81167 C 72.8000 %
435 10-12-2018 00:00:00 10.01083 C 71.3083 %
436 11-12-2018 00:00:00 9.19083 C 71.8583 %
437 12-12-2018 00:00:00 8.70667 C 72.1583 %
438 13-12-2018 00:00:00 8.07083 C 70.1167 %
439 14-12-2018 00:00:00 7.78 C 68.6583 %
440 15-12-2018 00:00:00 7.575 C 68.1083 %
441 16-12-2018 00:00:00 7.33667 C 67.4333 %
442 17-12-2018 00:00:00 7.74583 C 71.2333 %
443 18-12-2018 00:00:00 8.3475 C 72.4667 %
444 19-12-2018 00:00:00 8.60083 C 72.9417 %
445 20-12-2018 00:00:00 9.3175 C 74.0000 %
446 21-12-2018 00:00:00 10.0375 C 74.8333 %
447 22-12-2018 00:00:00 10.99417 C 74.3000 %
448 23-12-2018 00:00:00 10.525 C 74.6917 %
449 24-12-2018 00:00:00 10.26583 C 72.2917 %
450 25-12-2018 00:00:00 8.6825 C 71.1167 %
Sensor: Nr:Datum:Temp:Feuchte:
G-T/H 451 26-12-2018 00:00:00 7.58083 C 70.1333 %
452 27-12-2018 00:00:00 6.98167 C 70.2333 %
453 28-12-2018 00:00:00 6.8575 C 71.5833 %
454 29-12-2018 00:00:00 7.085 C 72.4583 %
455 30-12-2018 00:00:00 8.24 C 74.4417 %
456 31-12-2018 00:00:00 9.18833 C 75.6083 %
457 01-01-2019 00:00:00 9.65583 C 75.8167 %
458 02-01-2019 00:00:00 8.91333 C 73.4000 %
459 03-01-2019 00:00:00 7.65417 C 72.7000 %
460 04-01-2019 00:00:00 7.72667 C 73.7750 %
461 05-01-2019 00:00:00 8.26833 C 74.6083 %
462 06-01-2019 00:00:00 8.8 C 75.9250 %
463 07-01-2019 00:00:00 8.94 C 75.0167 %
464 08-01-2019 00:00:00 9.01833 C 74.5417 %
465 09-01-2019 00:00:00 8.46417 C 73.0417 %
466 10-01-2019 00:00:00 7.90083 C 71.3750 %
467 11-01-2019 00:00:00 7.57167 C 72.1167 %
468 12-01-2019 00:00:00 8.24417 C 74.2500 %
469 13-01-2019 00:00:00 8.91667 C 75.6333 %
470 14-01-2019 00:00:00 9.11083 C 74.7417 %
471 15-01-2019 00:00:00 8.33333 C 74.3833 %
472 16-01-2019 00:00:00 8.5125 C 74.7083 %
473 17-01-2019 00:00:00 8.4975 C 74.5500 %
474 18-01-2019 00:00:00 7.79333 C 72.6583 %
475 19-01-2019 00:00:00 6.99833 C 69.2000 %
Sensor: Nr:Datum:Temp:Feuchte:
G-T/H 476 20-01-2019 00:00:00 6.61083 C 64.8583 %
477 21-01-2019 00:00:00 6.18667 C 61.1750 %
478 22-01-2019 00:00:00 6.04833 C 60.2083 %
479 23-01-2019 00:00:00 6.2575 C 63.4917 %
480 24-01-2019 00:00:00 6.30833 C 65.6583 %
481 25-01-2019 00:00:00 6.2425 C 67.2833 %
482 26-01-2019 00:00:00 6.51833 C 71.7083 %
483 27-01-2019 00:00:00 7.75333 C 73.9667 %
484 28-01-2019 00:00:00 7.77417 C 74.2417 %
485 29-01-2019 00:00:00 7.46167 C 73.9917 %
486 30-01-2019 00:00:00 6.65667 C 69.5667 %
487 31-01-2019 00:00:00 6.54333 C 72.1667 %
488 01-02-2019 00:00:00 6.475 C 73.4167 %
489 02-02-2019 00:00:00 6.70083 C 74.6612 %
490 03-02-2019 00:00:00 6.98667 C 74.3417 %
491 04-02-2019 00:00:00 6.68333 C 73.8083 %
492 05-02-2019 00:00:00 7.12 C 74.5083 %
493 06-02-2019 00:00:00 6.9875 C 73.4333 %
494 07-02-2019 00:00:00 7.0025 C 74.8750 %
495 08-02-2019 00:00:00 7.93833 C 76.1083 %
496 09-02-2019 00:00:00 8.85917 C 76.1583 %
497 10-02-2019 00:00:00 9.2225 C 75.9667 %
498 11-02-2019 00:00:00 8.8125 C 75.1083 %
499 12-02-2019 00:00:00 8.09167 C 74.2167 %
500 13-02-2019 00:00:00 7.47583 C 73.5000 %
Sensor: Nr:Datum:Temp:Feuchte:
G-T/H 501 14-02-2019 00:00:00 6.95583 C 72.5083 %
502 15-02-2019 00:00:00 6.6825 C 71.6250 %
503 16-02-2019 00:00:00 6.53917 C 73.3083 %
504 17-02-2019 00:00:00 6.63667 C 74.1417 %
505 18-02-2019 00:00:00 6.65583 C 74.3000 %
506 19-02-2019 00:00:00 7.19417 C 75.8083 %
507 20-02-2019 00:00:00 7.495 C 75.5500 %
508 21-02-2019 00:00:00 7.76167 C 75.7333 %
509 22-02-2019 00:00:00 9.21417 C 77.2250 %
510 23-02-2019 00:00:00 9.20583 C 74.8917 %
511 24-02-2019 00:00:00 8.01917 C 72.1333 %
512 25-02-2019 00:00:00 7.5975 C 71.6250 %
513 26-02-2019 00:00:00 7.74083 C 71.5500 %
514 27-02-2019 00:00:00 6.63667 C 68.6917 %
515 28-02-2019 00:00:00 8.11917 C 73.1500 %
516 01-03-2019 00:00:00 9.37083 C 74.7583 %
517 02-03-2019 00:00:00 9.69333 C 72.8750 %
518 03-03-2019 00:00:00 10.36917 C 73.5083 %
519 04-03-2019 00:00:00 10.60917 C 73.1083 %
520 05-03-2019 00:00:00 9.71 C 71.6083 %
521 06-03-2019 00:00:00 9.71 C 73.4333 %
522 07-03-2019 00:00:00 10.48417 C 73.6500 %
523 08-03-2019 00:00:00 10.0575 C 72.7250 %
524 09-03-2019 00:00:00 10.17167 C 73.4333 %
525 10-03-2019 00:00:00 10.60917 C 71.4667 %
Sensor: Nr:Datum:Temp:Feuchte:
G-T/H 526 11-03-2019 00:00:00 9.44833 C 67.3667 %
527 12-03-2019 00:00:00 8.92417 C 70.4667 %
528 13-03-2019 00:00:00 9.345 C 71.3250 %
529 14-03-2019 00:00:00 9.13333 C 72.3750 %
530 15-03-2019 00:00:00 10.055 C 74.0583 %
531 16-03-2019 00:00:00 10.57417 C 72.1333 %
532 17-03-2019 00:00:00 9.70583 C 61.2083 %
533 18-03-2019 00:00:00 6.8675 C 62.4667 %
534 19-03-2019 00:00:00 6.02333 C 59.7583 %
535 20-03-2019 00:00:00 7.52333 C 64.5167 %
536 21-03-2019 00:00:00 9.29167 C 60.4917 %
537 22-03-2019 00:00:00 10.14833 C 61.3250 %
538 23-03-2019 00:00:00 10.15917 C 64.7250 %
539 24-03-2019 00:00:00 9.54833 C 67.2167 %
540 25-03-2019 00:00:00 9.15583 C 67.9000 %
541 26-03-2019 00:00:00 9.0525 C 69.7250 %
542 27-03-2019 00:00:00 9.47917 C 69.9333 %
543 28-03-2019 00:00:00 9.49583 C 69.9417 %
544 29-03-2019 00:00:00 10.2825 C 66.2583 %
545 30-03-2019 00:00:00 9.79667 C 60.6083 %
546 31-03-2019 00:00:00 11.2313 C 64.9130 %
547 01-04-2019 00:00:00 11.50333 C 60.3833 %
548 02-04-2019 00:00:00 11.2875 C 63.6333 %
549 03-04-2019 00:00:00 11.49833 C 67.0000 %
550 04-04-2019 00:00:00 10.56333 C 67.8833 %
Sensor: Nr:Datum:Temp:Feuchte:
G-T/H 551 05-04-2019 00:00:00 9.87333 C 68.5417 %
552 06-04-2019 00:00:00 10.76333 C 69.0417 %
553 07-04-2019 00:00:00 11.4925 C 68.0667 %
554 08-04-2019 00:00:00 12.30917 C 70.6833 %
555 09-04-2019 00:00:00 12.2875 C 74.7333 %
556 10-04-2019 00:00:00 12.35917 C 56.9917 %
557 11-04-2019 00:00:00 10.73083 C 48.4917 %
558 12-04-2019 00:00:00 9.57417 C 46.6333 %
559 13-04-2019 00:00:00 9.48583 C 55.2583 %
560 14-04-2019 00:00:00 9.175 C 58.5167 %
561 15-04-2019 00:00:00 10.07667 C 62.0833 %
562 16-04-2019 00:00:00 11.07083 C 62.2083 %
563 17-04-2019 00:00:00 12.33417 C 65.8333 %
564 18-04-2019 00:00:00 13.09417 C 62.0833 %
565 19-04-2019 00:00:00 14.9125 C 51.5500 %
566 20-04-2019 00:00:00 15.6775 C 48.0417 %
567 21-04-2019 00:00:00 16.29 C 47.3167 %
568 22-04-2019 00:00:00 15.22333 C 52.2417 %
569 23-04-2019 00:00:00 15.61417 C 53.2333 %
570 24-04-2019 00:00:00 15.37833 C 59.4167 %
571 25-04-2019 00:00:00 14.5575 C 61.5833 %
572 26-04-2019 00:00:00 14.28667 C 64.1250 %
573 27-04-2019 00:00:00 13.445 C 64.1833 %
574 28-04-2019 00:00:00 12.45 C 64.1833 %
575 29-04-2019 00:00:00 11.95083 C 63.4083 %
Sensor: Nr:Datum:Temp:Feuchte:
G-T/H 576 30-04-2019 00:00:00 13.89833 C 57.8083 %
577 01-05-2019 00:00:00 14.135 C 60.2833 %
578 02-05-2019 00:00:00 13.82333 C 62.1750 %
579 03-05-2019 00:00:00 13.86417 C 59.4750 %
580 04-05-2019 00:00:00 12.72083 C 59.0083 %
581 05-05-2019 00:00:00 11.31667 C 59.7917 %
582 06-05-2019 00:00:00 11.38833 C 61.2833 %
583 07-05-2019 00:00:00 11.88083 C 62.6250 %
584 08-05-2019 00:00:00 11.97 C 62.9333 %
585 09-05-2019 00:00:00 12.35167 C 66.7333 %
586 10-05-2019 00:00:00 12.92101 C 67.6218 %
587 11-05-2019 00:00:00 13.15833 C 68.0833 %
588 12-05-2019 00:00:00 12.12833 C 64.0833 %
589 13-05-2019 00:00:00 12.045 C 60.0000 %
590 14-05-2019 00:00:00 12.31083 C 59.7417 %
591 15-05-2019 00:00:00 12.7725 C 52.9833 %
592 16-05-2019 00:00:00 13.015 C 56.6333 %
593 17-05-2019 00:00:00 13.21917 C 63.1000 %
594 18-05-2019 00:00:00 14.04667 C 66.4250 %
595 19-05-2019 00:00:00 14.825 C 68.0750 %
596 20-05-2019 00:00:00 14.84583 C 68.8000 %
597 21-05-2019 00:00:00 14.15167 C 70.0167 %
598 22-05-2019 00:00:00 13.71167 C 69.7583 %
599 23-05-2019 00:00:00 15.29917 C 61.3750 %
600 24-05-2019 00:00:00 17.54 C 55.6333 %
Sensor: Nr:Datum:Temp:Feuchte:
G-T/H 601 25-05-2019 00:00:00 17.29083 C 56.6250 %
602 26-05-2019 00:00:00 16.44583 C 60.8167 %
603 27-05-2019 00:00:00 16.3925 C 64.3917 %
604 28-05-2019 00:00:00 15.71583 C 66.5333 %
605 29-05-2019 00:00:00 16.0475 C 54.4250 %
606 30-05-2019 00:00:00 15.75417 C 61.4167 %
607 31-05-2019 00:00:00 17.74167 C 65.2667 %
608 01-06-2019 00:00:00 18.025 C 65.0750 %
609 02-06-2019 00:00:00 18.60667 C 66.0917 %
610 03-06-2019 00:00:00 19.92333 C 65.8667 %
611 04-06-2019 00:00:00 19.69667 C 66.1500 %
612 05-06-2019 00:00:00 20.025 C 66.6917 %
613 06-06-2019 00:00:00 19.2775 C 64.1917 %
614 07-06-2019 00:00:00 17.86583 C 60.1250 %
615 08-06-2019 00:00:00 17.565 C 60.2333 %
616 09-06-2019 00:00:00 16.99667 C 61.5667 %
617 10-06-2019 00:00:00 17.96333 C 64.8583 %
618 11-06-2019 00:00:00 18.18333 C 66.3917 %
619 12-06-2019 00:00:00 17.70333 C 67.3917 %
620 13-06-2019 00:00:00 17.89167 C 58.1667 %
621 14-06-2019 00:00:00 19.59083 C 60.6083 %
622 15-06-2019 00:00:00 19.6625 C 64.9917 %
623 16-06-2019 00:00:00 19.56917 C 62.4417 %
624 17-06-2019 00:00:00 19.01167 C 62.8417 %
625 18-06-2019 00:00:00 21.23667 C 58.9250 %
Sensor: Nr:Datum:Temp:Feuchte:
G-T/H 626 19-06-2019 00:00:00 21.53167 C 61.1000 %
627 20-06-2019 00:00:00 20.7375 C 63.5667 %
628 21-06-2019 00:00:00 20.53083 C 52.5000 %
629 22-06-2019 00:00:00 20.16917 C 54.8083 %
630 23-06-2019 00:00:00 21.31917 C 57.1667 %
631 24-06-2019 00:00:00 23.94167 C 55.3000 %
632 25-06-2019 00:00:00 23.93083 C 58.5083 %
633 26-06-2019 00:00:00 24.37417 C 62.9417 %
634 27-06-2019 00:00:00 23.60667 C 60.8333 %
635 28-06-2019 00:00:00 22.21417 C 58.6667 %
636 29-06-2019 00:00:00 24.105 C 45.4667 %
637 30-06-2019 00:00:00 23.46833 C 52.6667 %
638 01-07-2019 00:00:00 23.14417 C 56.9333 %
639 02-07-2019 00:00:00 21.5975 C 49.7667 %
640 03-07-2019 00:00:00 20.46667 C 46.5000 %
641 04-07-2019 00:00:00 20.24 C 44.2750 %
642 05-07-2019 00:00:00 20.99583 C 47.4667 %
643 06-07-2019 00:00:00 21.055 C 53.0250 %
644 07-07-2019 00:00:00 20.39667 C 54.9083 %
645 08-07-2019 00:00:00 18.37167 C 51.1250 %
646 09-07-2019 00:00:00 18.10583 C 49.1417 %
647 10-07-2019 00:00:00 18.91917 C 42.0333 %
648 11-07-2019 00:00:00 18.91167 C 59.7083 %
649 12-07-2019 00:00:00 18.3025 C 73.7917 %
650 13-07-2019 00:00:00 18.47333 C 67.7417 %
Sensor: Nr:Datum:Temp:Feuchte:
G-T/H 651 14-07-2019 00:00:00 18.46917 C 65.0917 %
652 15-07-2019 00:00:00 18.2725 C 59.6250 %
653 16-07-2019 00:00:00 17.95917 C 58.3667 %
654 17-07-2019 00:00:00 18.23667 C 61.2917 %
655 18-07-2019 00:00:00 19.79417 C 58.3083 %
656 19-07-2019 00:00:00 19.79417 C 61.5917 %
657 20-07-2019 00:00:00 19.78583 C 63.8500 %
658 21-07-2019 00:00:00 20.41333 C 63.8583 %
659 22-07-2019 00:00:00 22.33167 C 54.5167 %
660 23-07-2019 00:00:00 22.5225 C 56.8667 %
661 24-07-2019 00:00:00 23.21833 C 58.3417 %
662 25-07-2019 00:00:00 24.345 C 57.0083 %
663 26-07-2019 00:00:00 24.17667 C 57.8500 %
664 27-07-2019 00:00:00 23.54 C 61.3083 %
665 28-07-2019 00:00:00 22.08333 C 64.8167 %
666 29-07-2019 00:00:00 21.58833 C 59.7917 %
667 30-07-2019 00:00:00 21.785 C 58.7750 %
668 31-07-2019 00:00:00 22.4025 C 50.4333 %
669 01-08-2019 00:00:00 21.77083 C 49.7000 %
670 02-08-2019 00:00:00 21.34583 C 55.7750 %
671 03-08-2019 00:00:00 20.90667 C 59.1167 %
672 04-08-2019 00:00:00 20.4525 C 59.4750 %
673 05-08-2019 00:00:00 22.07 C 57.0167 %
674 06-08-2019 00:00:00 21.48083 C 59.7417 %
675 07-08-2019 00:00:00 21.08 C 63.1500 %
Sensor: Nr:Datum:Temp:Feuchte:
G-T/H 676 08-08-2019 00:00:00 20.60333 C 62.6167 %
677 09-08-2019 00:00:00 20.50167 C 64.6000 %
678 10-08-2019 00:00:00 20.38917 C 65.0917 %
679 11-08-2019 00:00:00 19.8725 C 64.3750 %
680 12-08-2019 00:00:00 19.0475 C 65.6000 %
681 13-08-2019 00:00:00 18.645 C 58.8417 %
682 14-08-2019 00:00:00 18.54583 C 57.0833 %
683 15-08-2019 00:00:00 18.91583 C 62.6250 %
684 16-08-2019 00:00:00 18.59917 C 65.5583 %
685 17-08-2019 00:00:00 18.78167 C 67.1583 %
686 18-08-2019 00:00:00 19.07417 C 68.7167 %
687 19-08-2019 00:00:00 19.70167 C 61.8833 %
688 20-08-2019 00:00:00 18.7775 C 58.6500 %
689 21-08-2019 00:00:00 18.37 C 62.6500 %
690 22-08-2019 00:00:00 18.7725 C 58.7167 %
691 23-08-2019 00:00:00 19.34333 C 56.0250 %
692 24-08-2019 00:00:00 19.1825 C 58.5917 %
693 25-08-2019 00:00:00 19.53 C 63.3500 %
694 26-08-2019 00:00:00 21.84417 C 64.5833 %
695 27-08-2019 00:00:00 21.31417 C 66.1667 %
696 28-08-2019 00:00:00 21.07 C 66.6583 %
697 29-08-2019 00:00:00 21.03417 C 66.8417 %
698 30-08-2019 00:00:00 20.6775 C 66.8917 %
699 31-08-2019 00:00:00 20.2775 C 66.5917 %
700 01-09-2019 00:00:00 20.59167 C 65.4167 %
Sensor: Nr:Datum:Temp:Feuchte:
G-T/H 701 02-09-2019 00:00:00 18.59583 C 51.3417 %
702 03-09-2019 00:00:00 16.5475 C 53.5583 %
703 04-09-2019 00:00:00 18.68667 C 56.9667 %
704 05-09-2019 00:00:00 18.34667 C 60.0000 %
705 06-09-2019 00:00:00 17.44333 C 56.1750 %
706 07-09-2019 00:00:00 17.36583 C 60.4417 %
707 08-09-2019 00:00:00 16.54309 C 65.9350 %
708 09-09-2019 00:00:00 16.06067 C 66.7333 %
709 10-09-2019 00:00:00 15.23333 C 63.6597 %
710 11-09-2019 00:00:00 15.74097 C 61.0833 %
711 12-09-2019 00:00:00 17.93194 C 67.6319 %
712 13-09-2019 00:00:00 18.68472 C 70.9653 %
713 14-09-2019 00:00:00 18.01181 C 65.5903 %
714 15-09-2019 00:00:00 17.60347 C 61.9722 %
715 16-09-2019 00:00:00 17.78264 C 60.7361 %
716 17-09-2019 00:00:00 17.67431 C 62.7083 %
717 18-09-2019 00:00:00 15.39444 C 57.2778 %
718 19-09-2019 00:00:00 14.12361 C 57.3125 %
719 20-09-2019 00:00:00 13.22639 C 59.3056 %
720 21-09-2019 00:00:00 15.10833 C 52.5278 %
721 22-09-2019 00:00:00 15.13194 C 59.2083 %
722 23-09-2019 00:00:00 16.27153 C 64.4028 %
723 24-09-2019 00:00:00 16.11528 C 66.2778 %
724 25-09-2019 00:00:00 16.20556 C 67.8681 %
725 26-09-2019 00:00:00 16.33542 C 69.4097 %
Sensor: Nr:Datum:Temp:Feuchte:
G-T/H 726 27-09-2019 00:00:00 16.76458 C 69.3611 %
727 28-09-2019 00:00:00 16.47083 C 68.9792 %
728 29-09-2019 00:00:00 16.41458 C 69.6528 %
729 30-09-2019 00:00:00 16.64236 C 66.7917 %
730 01-10-2019 00:00:00 16.54167 C 68.3542 %
731 02-10-2019 00:00:00 16.15694 C 67.3056 %
732 03-10-2019 00:00:00 14.67222 C 66.7361 %
733 04-10-2019 00:00:00 14.15556 C 70.1319 %
734 05-10-2019 00:00:00 14.31875 C 71.1667 %
735 06-10-2019 00:00:00 13.69306 C 70.7847 %
736 07-10-2019 00:00:00 13.58056 C 72.7153 %
737 08-10-2019 00:00:00 14.14097 C 74.1597 %
738 09-10-2019 00:00:00 14.23472 C 74.0486 %
739 10-10-2019 00:00:00 14.00139 C 74.0278 %
740 11-10-2019 00:00:00 13.98819 C 74.3333 %
741 12-10-2019 00:00:00 14.71181 C 71.7639 %
742 13-10-2019 00:00:00 15.13472 C 74.9097 %
743 14-10-2019 00:00:00 16.34722 C 74.3958 %
744 15-10-2019 00:00:00 15.98125 C 73.6597 %
745 16-10-2019 00:00:00 15.42708 C 73.2986 %
746 17-10-2019 00:00:00 15.28056 C 74.7292 %
747 18-10-2019 00:00:00 15.18681 C 74.6042 %
748 19-10-2019 00:00:00 14.72222 C 74.1944 %
749 20-10-2019 00:00:00 14.40278 C 81.1597 %
750 21-10-2019 00:00:00 14.60625 C 80.9028 %
Sensor: Nr:Datum:Temp:Feuchte:
G-T/H 751 22-10-2019 00:00:00 14.62153 C 77.5000 %
752 23-10-2019 00:00:00 14.00764 C 76.3542 %
753 24-10-2019 00:00:00 14.52986 C 78.0139 %
754 25-10-2019 00:00:00 15.10694 C 74.8681 %
755 26-10-2019 00:00:00 14.99028 C 74.2153 %
756 27-10-2019 00:00:00 14.43933 C 74.9333 %
757 28-10-2019 00:00:00 12.81389 C 71.1806 %
758 29-10-2019 00:00:00 12.35556 C 71.6389 %
759 30-10-2019 00:00:00 10.98611 C 65.8194 %
760 31-10-2019 00:00:00 9.49097 C 64.1736 %
761 01-11-2019 00:00:00 9.67014 C 69.2569 %
762 02-11-2019 00:00:00 12.01181 C 74.2222 %
763 03-11-2019 00:00:00 12.91806 C 75.4861 %
764 04-11-2019 00:00:00 12.97569 C 75.6250 %
765 05-11-2019 00:00:00 12.58194 C 75.9444 %
766 06-11-2019 00:00:00 12.33194 C 75.6528 %
767 07-11-2019 00:00:00 12.18403 C 75.3403 %
768 08-11-2019 00:00:00 11.13611 C 70.1181 %
769 09-11-2019 00:00:00 11.02014 C 69.0972 %
770 10-11-2019 00:00:00 9.95556 C 68.3056 %
771 11-11-2019 00:00:00 9.96458 C 71.2708 %
772 12-11-2019 00:00:00 10.11458 C 72.0972 %
773 13-11-2019 00:00:00 10.0125 C 72.4097 %
774 14-11-2019 00:00:00 9.73403 C 68.3958 %
775 15-11-2019 00:00:00 9.68819 C 69.4028 %
Sensor: Nr:Datum:Temp:Feuchte:
G-T/H 776 16-11-2019 00:00:00 9.6125 C 68.7083 %
777 17-11-2019 00:00:00 9.03819 C 69.9306 %
778 18-11-2019 00:00:00 9.47361 C 72.2500 %
779 19-11-2019 00:00:00 9.40903 C 72.0833 %
780 20-11-2019 00:00:00 8.93333 C 71.1181 %
781 21-11-2019 00:00:00 8.40559 C 70.8182 %
782 22-11-2019 00:00:00 8.70556 C 72.6736 %
783 23-11-2019 00:00:00 9.32569 C 73.0972 %
784 24-11-2019 00:00:00 9.08333 C 72.0764 %
785 25-11-2019 00:00:00 9.04375 C 73.5069 %
786 26-11-2019 00:00:00 9.85139 C 74.9375 %
787 27-11-2019 00:00:00 10.87847 C 75.9236 %
788 28-11-2019 00:00:00 11.51597 C 75.5069 %
789 29-11-2019 00:00:00 11.25208 C 72.3542 %
790 30-11-2019 00:00:00 9.66736 C 68.9097 %
791 01-12-2019 00:00:00 8.81806 C 70.1806 %
792 02-12-2019 00:00:00 8.35278 C 70.5417 %
793 03-12-2019 00:00:00 8.74514 C 73.3472 %
794 04-12-2019 00:00:00 8.79375 C 71.8403 %
795 05-12-2019 00:00:00 7.92014 C 69.1458 %
796 06-12-2019 00:00:00 7.57292 C 70.7014 %
797 07-12-2019 00:00:00 8.97014 C 74.4514 %
798 08-12-2019 00:00:00 10.25694 C 75.1667 %
799 09-12-2019 00:00:00 10.48403 C 74.1111 %
800 10-12-2019 00:00:00 9.34028 C 71.5903 %
Sensor: Nr:Datum:Temp:Feuchte:
G-T/H 801 11-12-2019 00:00:00 8.75694 C 73.1250 %
802 12-12-2019 00:00:00 8.81042 C 73.2500 %
803 13-12-2019 00:00:00 8.51944 C 72.1458 %
804 14-12-2019 00:00:00 8.92153 C 73.0764 %
805 15-12-2019 00:00:00 9.56736 C 74.6667 %
806 16-12-2019 00:00:00 9.90486 C 75.1389 %
807 17-12-2019 00:00:00 10.43333 C 75.4583 %
808 18-12-2019 00:00:00 10.925 C 75.4861 %
809 19-12-2019 00:00:00 9.76667 C 73.6667 %
810 20-12-2019 00:00:00 9.69375 C 75.0208 %
811 21-12-2019 00:00:00 10.06458 C 74.5833 %
812 22-12-2019 00:00:00 10.1375 C 75.1528 %
813 23-12-2019 00:00:00 10.30417 C 75.3681 %
814 24-12-2019 00:00:00 10.12639 C 74.9375 %
815 25-12-2019 00:00:00 10.24444 C 75.9653 %
816 26-12-2019 00:00:00 9.92708 C 75.2569 %
817 27-12-2019 00:00:00 9.69444 C 75.5833 %
818 28-12-2019 00:00:00 8.37639 C 70.3194 %
819 29-12-2019 00:00:00 7.21528 C 69.6875 %
820 30-12-2019 00:00:00 7.16944 C 69.0486 %
821 31-12-2019 00:00:00 6.93194 C 69.9722 %
822 01-01-2020 00:00:00 7.23125 C 70.8403 %
823 02-01-2020 00:00:00 7.28958 C 70.5417 %
824 03-01-2020 00:00:00 8.41389 C 73.4792 %
825 04-01-2020 00:00:00 9.12431 C 73.5833 %
Sensor: Nr:Datum:Temp:Feuchte:
G-T/H 826 05-01-2020 00:00:00 9.42917 C 73.5694 %
827 06-01-2020 00:00:00 9.33958 C 72.1181 %
828 07-01-2020 00:00:00 8.74583 C 72.1111 %
829 08-01-2020 00:00:00 9.18611 C 74.0347 %
830 09-01-2020 00:00:00 10.3875 C 76.5556 %
831 10-01-2020 00:00:00 11.02153 C 75.1389 %
832 11-01-2020 00:00:00 10.04097 C 73.2014 %
833 12-01-2020 00:00:00 9.14861 C 72.8958 %
834 13-01-2020 00:00:00 9.30833 C 74.5139 %
835 14-01-2020 00:00:00 9.78958 C 75.6597 %
836 15-01-2020 00:00:00 10.59028 C 75.5972 %
837 16-01-2020 00:00:00 10.82222 C 75.8264 %
838 17-01-2020 00:00:00 9.87847 C 74.9583 %
839 18-01-2020 00:00:00 9.38125 C 74.1597 %
840 19-01-2020 00:00:00 8.86667 C 74.2569 %
841 20-01-2020 00:00:00 8.75 C 73.1111 %
842 21-01-2020 00:00:00 7.77014 C 69.7847 %
843 22-01-2020 00:00:00 7.17083 C 69.5903 %
844 23-01-2020 00:00:00 7.63472 C 70.8611 %
845 24-01-2020 00:00:00 7.71319 C 70.9097 %
846 25-01-2020 00:00:00 7.96806 C 71.5139 %
847 26-01-2020 00:00:00 7.98611 C 72.6597 %
848 27-01-2020 00:00:00 8.21875 C 74.7500 %
849 28-01-2020 00:00:00 8.85833 C 75.1458 %
850 29-01-2020 00:00:00 8.44306 C 74.0000 %
Sensor: Nr:Datum:Temp:Feuchte:
G-T/H 851 30-01-2020 00:00:00 8.61389 C 74.8750 %
852 31-01-2020 00:00:00 10.32431 C 76.3958 %
853 01-02-2020 00:00:00 11.40556 C 76.3681 %
854 02-02-2020 00:00:00 11.15903 C 73.6736 %
855 03-02-2020 00:00:00 11.4875 C 75.0000 %
856 04-02-2020 00:00:00 10.54722 C 71.2847 %
857 05-02-2020 00:00:00 9.47153 C 71.9236 %
858 06-02-2020 00:00:00 8.34306 C 70.5208 %
859 07-02-2020 00:00:00 7.79097 C 69.9167 %
860 08-02-2020 00:00:00 7.33681 C 70.6528 %
861 09-02-2020 00:00:00 8.3 C 73.5694 %
862 10-02-2020 00:00:00 9.82708 C 73.9167 %
863 11-02-2020 00:00:00 9.18194 C 72.2431 %
864 12-02-2020 00:00:00 8.72083 C 72.8750 %
865 13-02-2020 00:00:00 8.20208 C 72.5208 %
866 14-02-2020 00:00:00 8.84653 C 74.7500 %
867 15-02-2020 00:00:00 8.93958 C 73.5903 %
868 16-02-2020 00:00:00 11.3125 C 68.1111 %
869 17-02-2020 00:00:00 11.77708 C 69.2778 %
870 18-02-2020 00:00:00 10.43056 C 67.4028 %
871 19-02-2020 00:00:00 9.94514 C 69.4583 %
872 20-02-2020 00:00:00 9.73472 C 71.6875 %
873 21-02-2020 00:00:00 9.56875 C 71.4931 %
874 22-02-2020 00:00:00 9.25625 C 72.0625 %
875 23-02-2020 00:00:00 10.38403 C 73.7708 %
Sensor: Nr:Datum:Temp:Feuchte:
G-T/H 876 24-02-2020 00:00:00 10.40903 C 71.9792 %
877 25-02-2020 00:00:00 10.88819 C 73.0278 %
878 26-02-2020 00:00:00 10.02917 C 68.9306 %
879 27-02-2020 00:00:00 9.17986 C 71.0208 %
880 28-02-2020 00:00:00 8.31042 C 73.7708 %
881 29-02-2020 00:00:00 9.28125 C 75.1597 %
882 01-03-2020 00:00:00 9.80486 C 74.3403 %
883 02-03-2020 00:00:00 9.67847 C 73.5833 %
884 03-03-2020 00:00:00 9.53681 C 73.3194 %
885 04-03-2020 00:00:00 8.95833 C 73.5139 %
886 05-03-2020 00:00:00 9.15833 C 73.9861 %
887 06-03-2020 00:00:00 9.48958 C 74.9514 %
888 07-03-2020 00:00:00 9.38611 C 74.0556 %
889 08-03-2020 00:00:00 9.99583 C 74.7292 %
890 09-03-2020 00:00:00 10.54861 C 73.8819 %
891 10-03-2020 00:00:00 10.28056 C 73.3819 %
892 11-03-2020 00:00:00 11.72083 C 75.8889 %
893 12-03-2020 00:00:00 12.29653 C 71.3333 %
894 13-03-2020 00:00:00 11.08333 C 68.2014 %
895 14-03-2020 00:00:00 10.32361 C 70.1250 %
896 15-03-2020 00:00:00 10.87153 C 65.1667 %
897 16-03-2020 00:00:00 10.71667 C 66.3819 %
898 17-03-2020 00:00:00 11.47153 C 70.7292 %
899 18-03-2020 00:00:00 11.42569 C 70.3472 %
900 19-03-2020 00:00:00 12.36736 C 67.4583 %
Sensor: Nr:Datum:Temp:Feuchte:
G-T/H 901 20-03-2020 00:00:00 12.53217 C 67.5944 %
902 21-03-2020 00:00:00 11.55903 C 63.9097 %
903 22-03-2020 00:00:00 9.66111 C 61.2292 %
904 23-03-2020 00:00:00 8.67431 C 62.8819 %
905 24-03-2020 00:00:00 8.04028 C 63.8611 %
906 25-03-2020 00:00:00 7.80833 C 63.4722 %
907 26-03-2020 00:00:00 8.04028 C 64.0208 %
908 27-03-2020 00:00:00 9.19722 C 61.4583 %
909 28-03-2020 00:00:00 10.48264 C 59.6944 %
910 29-03-2020 00:00:00 10.14855 C 60.5362 %
911 30-03-2020 00:00:00 8.62708 C 59.5417 %
912 31-03-2020 00:00:00 8.58472 C 62.8194 %
913 01-04-2020 00:00:00 8.20764 C 62.6181 %
914 02-04-2020 00:00:00 8.18194 C 64.4097 %
915 03-04-2020 00:00:00 9.17708 C 61.3125 %
916 04-04-2020 00:00:00 7.05486 C 55.4306 %
917 05-04-2020 00:00:00 9.21944 C 61.8056 %
918 06-04-2020 00:00:00 10.2125 C 63.7569 %
919 07-04-2020 00:00:00 13.11319 C 59.7083 %
920 08-04-2020 00:00:00 13.17153 C 61.2847 %
921 09-04-2020 00:00:00 13.65556 C 60.0069 %
922 10-04-2020 00:00:00 13.73681 C 60.7847 %
923 11-04-2020 00:00:00 13.3125 C 61.3611 %
924 12-04-2020 00:00:00 13.45 C 63.2500 %
925 13-04-2020 00:00:00 13.15556 C 59.7986 %
Sensor: Nr:Datum:Temp:Feuchte:
G-T/H 926 14-04-2020 00:00:00 11.44375 C 58.7847 %
927 15-04-2020 00:00:00 11.16875 C 56.8333 %
928 16-04-2020 00:00:00 11.42917 C 52.3542 %
929 17-04-2020 00:00:00 14.90625 C 55.3958 %
930 18-04-2020 00:00:00 14.63333 C 62.5347 %
931 19-04-2020 00:00:00 14.45833 C 64.6250 %
932 20-04-2020 00:00:00 13.53681 C 59.6042 %
933 21-04-2020 00:00:00 13.28819 C 58.7986 %
934 22-04-2020 00:00:00 13.43958 C 59.4167 %
935 23-04-2020 00:00:00 13.68125 C 59.6181 %
936 24-04-2020 00:00:00 14.95139 C 52.1875 %
937 25-04-2020 00:00:00 14.65694 C 48.8681 %
938 26-04-2020 00:00:00 11.22569 C 54.7014 %
939 27-04-2020 00:00:00 13.14028 C 57.4375 %
940 28-04-2020 00:00:00 13.66528 C 62.0139 %
941 29-04-2020 00:00:00 13.85625 C 64.5486 %
942 30-04-2020 00:00:00 14.0875 C 65.0556 %
943 01-05-2020 00:00:00 13.42361 C 65.1111 %
944 02-05-2020 00:00:00 12.90972 C 65.8542 %
945 03-05-2020 00:00:00 12.50278 C 65.6389 %
946 04-05-2020 00:00:00 13.3096 C 66.6560 %
947 16-08-2020 00:00:00 28.83774 C 49.1132 %
948 17-08-2020 00:00:00 22.89861 C 61.1597 %
949 18-08-2020 00:00:00 21.78472 C 62.2500 %
950 19-08-2020 00:00:00 20.76042 C 62.8056 %
Sensor: Nr:Datum:Temp:Feuchte:
G-T/H 951 20-08-2020 00:00:00 21.42778 C 64.2153 %
952 21-08-2020 00:00:00 23.78681 C 60.8611 %
953 22-08-2020 00:00:00 23.54028 C 51.5833 %
954 23-08-2020 00:00:00 22.34236 C 54.2083 %
955 24-08-2020 00:00:00 21.13958 C 53.8264 %
956 25-08-2020 00:00:00 20.35139 C 56.7569 %
957 26-08-2020 00:00:00 20.64931 C 57.0625 %
958 27-08-2020 00:00:00 20.16944 C 57.9792 %
959 28-08-2020 00:00:00 19.75903 C 60.7222 %
960 29-08-2020 00:00:00 18.92847 C 61.1806 %
961 30-08-2020 00:00:00 18.35694 C 63.0694 %
962 31-08-2020 00:00:00 18.39792 C 64.6944 %
963 01-09-2020 00:00:00 17.98125 C 66.3125 %
964 02-09-2020 00:00:00 18.01667 C 60.1667 %
965 03-09-2020 00:00:00 17.69861 C 62.8542 %
966 04-09-2020 00:00:00 18.82847 C 66.3056 %
967 05-09-2020 00:00:00 19.28889 C 64.4444 %
968 06-09-2020 00:00:00 18.08056 C 57.0833 %
969 07-09-2020 00:00:00 17.27153 C 55.0972 %
970 08-09-2020 00:00:00 17.67083 C 55.2569 %
971 09-09-2020 00:00:00 18.06458 C 61.2014 %
972 10-09-2020 00:00:00 18.65208 C 58.8194 %
973 11-09-2020 00:00:00 18.21875 C 54.8403 %
974 12-09-2020 00:00:00 17.77361 C 59.5764 %
975 13-09-2020 00:00:00 18.46667 C 59.0000 %
Sensor: Nr:Datum:Temp:Feuchte:
G-T/H 976 14-09-2020 00:00:00 19.90417 C 56.0208 %
977 15-09-2020 00:00:00 19.45278 C 58.5278 %
978 16-09-2020 00:00:00 19.31111 C 61.5972 %
979 17-09-2020 00:00:00 19.19097 C 59.8681 %
980 18-09-2020 00:00:00 17.71667 C 58.8681 %
981 19-09-2020 00:00:00 18.09583 C 51.6806 %
982 20-09-2020 00:00:00 16.47431 C 50.9097 %
983 21-09-2020 00:00:00 16.33125 C 57.3403 %
984 22-09-2020 00:00:00 17.15069 C 57.0000 %
985 23-09-2020 00:00:00 17.37778 C 58.4792 %
986 24-09-2020 00:00:00 17.76528 C 58.3125 %
987 25-09-2020 00:00:00 16.23056 C 57.3264 %
988 26-09-2020 00:00:00 15.11111 C 62.6597 %
989 27-09-2020 00:00:00 14.62083 C 67.2569 %
990 28-09-2020 00:00:00 14.80417 C 68.7500 %
991 29-09-2020 00:00:00 14.98889 C 69.8125 %
992 30-09-2020 00:00:00 15.23333 C 70.9514 %
993 01-10-2020 00:00:00 15.42639 C 70.8750 %

Maximal/Minimal-Werte vom 02.10.2017 - 01.10.2020

Sensor Min Max Avg
Temp
(Aussen-T/F)
-12.4 °C
27-02-2018  07:25:17
44.3 °C
08-08-2020  16:51:17
11.48 °C
Feuchte
(Aussen-T/F)
20 %
02-10-2017  17:38:17
78 %
23-11-2017  06:30:17
32.66 %
Temp
(G-T/H)
2 °C
27-02-2018  07:01:17
29.7 °C
26-07-2018  16:25:17
13.24 °C
Feuchte
(G-T/H)
25 %
29-06-2019  18:04:17
85 %
16-10-2017  15:03:17
66.66 %

Die Daten stammen von einer Davis Vantage Pro 2 Wetter-Station und werden unter Linux mit der Software wview2wettercgi und aufbereitet. Alle Angaben erfolgen ohne Gewähr für ihre Vollständigkeit oder Richtigkeit.
Kontakt: Rainer Krienke krienke@uni-koblenz.de . Meine Webseiten an der Uni Koblenz oder privat.
Version: $Revision: 0.78 $